GFSGBSN_925_thetae_045.txt.gz
Theta_e
307 307 306 307 307 307 307 307 308 309 308 307 307 307 307 306 307 308 307 306 303 310 314 314 315 316 316 318 319 319 318 317 314 312 315 315 313 313 313 314 316 317 316 316 316 318 320
306 306 306 306 305 305 306 307 305 305 305 308 307 307 307 307 306 306 307 307 305 304 311 313 314 315 317 319 313 318 318 316 314 312 314 315 314 313 317 318 317 317 317 317 317 317 322
306 307 306 305 304 304 304 303 303 304 304 304 306 307 306 306 307 306 306 306 306 305 306 311 313 315 316 317 309 317 317 320 316 315 313 316 316 317 317 318 319 319 317 316 316 323 325
305 305 305 305 305 305 305 304 303 303 304 304 304 305 307 306 306 306 306 306 305 305 304 311 313 314 316 309 312 315 316 316 319 315 315 316 318 317 318 317 318 317 316 316 316 322 324
305 305 305 305 304 304 303 304 304 304 303 302 303 304 305 307 306 306 306 306 303 301 307 312 314 314 319 313 314 314 315 316 319 318 316 316 317 316 316 317 316 316 317 316 320 323 325
304 304 305 304 304 303 304 303 303 304 305 304 303 303 303 304 306 306 306 305 299 306 311 316 316 316 317 314 316 315 315 314 319 315 315 316 315 315 313 315 318 319 318 319 323 323 325
303 303 304 304 304 304 305 305 305 304 304 305 304 303 302 303 305 306 306 305 313 317 317 320 318 314 316 317 317 315 315 314 318 315 316 316 315 315 313 315 318 318 317 318 321 323 325
303 304 304 305 305 305 305 305 305 305 304 303 304 304 303 302 304 306 305 307 311 310 315 317 320 320 319 318 317 315 314 314 319 319 315 317 317 316 317 317 318 320 318 316 320 324 324
302 303 304 304 305 305 305 305 305 305 304 304 303 303 303 301 305 306 305 306 305 309 314 313 314 313 312 311 311 313 313 313 320 319 318 317 318 318 318 320 321 319 317 317 319 321 321
301 301 302 304 304 304 303 303 303 303 303 304 304 303 303 301 305 306 306 313 315 316 318 312 309 311 311 311 313 313 315 314 318 320 319 318 318 319 319 321 319 318 317 319 322 321 321
301 302 302 302 302 303 303 303 303 303 303 303 303 304 303 301 305 306 309 308 313 319 303 307 310 311 311 311 315 315 315 314 316 318 317 318 319 319 320 321 320 320 320 321 322 322 319
300 300 301 301 302 303 303 303 304 304 304 303 303 303 303 303 301 304 305 306 314 317 319 309 317 317 317 313 314 315 314 313 316 317 317 317 317 318 319 321 320 318 322 323 323 321 321
300 300 301 301 302 302 303 304 304 304 304 304 303 303 303 302 303 305 308 310 317 316 306 306 318 318 318 318 317 315 315 314 314 319 320 319 318 319 319 320 320 318 321 323 323 322 322
299 300 300 301 301 302 302 303 304 304 304 304 303 303 303 303 302 303 306 313 316 305 307 309 310 312 319 317 318 318 317 316 314 317 318 320 321 319 319 319 319 318 319 323 326 328 330
299 299 299 300 301 301 302 303 304 305 305 304 304 303 304 303 302 304 309 313 309 307 306 304 305 307 318 319 319 318 317 317 316 315 318 319 319 319 319 319 319 321 321 320 330 330 329
299 299 299 300 300 301 302 302 303 304 305 304 305 304 304 302 303 305 309 310 310 309 306 306 307 309 312 317 319 319 318 317 317 316 316 319 321 320 320 318 318 319 321 325 329 332 333
298 299 299 299 300 301 302 302 303 304 304 305 305 305 303 303 304 305 307 309 307 308 309 309 306 307 308 310 311 316 319 318 316 317 317 317 318 320 321 321 320 320 320 321 327 328 328
299 299 299 299 300 301 301 302 302 303 304 305 305 305 303 303 306 305 306 307 307 307 308 308 309 309 309 310 310 312 321 321 318 317 318 317 319 319 320 321 320 319 319 320 325 327 326
298 299 299 300 300 300 301 302 302 303 304 306 305 304 304 304 306 305 305 306 305 307 308 309 309 309 309 310 311 317 321 321 321 321 317 317 318 319 322 320 320 320 319 320 321 323 326
299 299 299 300 300 300 301 301 302 303 304 306 303 305 306 305 304 305 305 306 307 306 307 307 307 308 308 309 310 318 320 321 320 322 320 318 318 318 320 321 321 322 321 320 319 322 322
299 299 299 299 300 301 301 301 302 303 304 306 302 303 305 307 306 305 305 305 307 307 307 306 306 307 309 309 311 313 319 320 319 319 322 322 320 319 318 320 321 323 322 320 320 321 326
298 299 299 300 301 301 302 302 302 303 304 306 299 305 305 305 306 305 306 306 306 308 307 308 307 307 308 308 309 311 318 321 322 322 322 322 321 320 320 319 320 320 320 320 320 321 324
299 299 300 300 300 300 302 302 300 302 304 306 302 302 305 305 307 307 306 306 307 306 307 307 308 307 308 309 309 314 319 319 321 321 320 321 322 321 320 320 321 321 320 319 320 320 320
299 299 299 299 299 300 300 300 300 301 301 303 303 303 304 308 306 307 306 306 306 308 307 308 308 308 307 307 317 316 316 317 318 319 318 320 321 321 318 320 326 320 319 318 318 318 317
298 299 299 299 299 299 299 300 300 301 302 301 301 304 305 306 306 306 306 306 307 307 309 308 309 308 307 307 316 316 312 315 315 317 319 317 318 321 322 322 321 321 318 318 318 318 317
300 300 300 301 301 301 301 300 300 300 302 301 296 302 305 306 307 306 307 307 307 307 306 306 307 307 307 307 311 312 314 316 317 316 316 317 314 316 320 323 324 320 319 318 318 318 318
302 302 302 302 302 301 301 301 301 300 301 302 300 298 303 305 306 307 307 307 306 307 307 307 308 308 308 308 309 314 313 316 317 315 317 315 313 318 319 324 320 320 318 318 320 318 318
301 301 301 301 301 301 302 302 301 301 301 301 302 299 301 300 305 307 308 308 307 308 308 307 309 309 308 310 310 311 308 314 315 314 318 319 319 319 321 323 324 318 321 319 319 318 319
301 301 301 301 301 301 302 302 302 301 301 301 301 300 300 303 306 307 307 308 308 309 310 308 308 308 309 310 310 311 308 311 313 314 312 318 318 320 320 321 319 317 320 318 316 317 321

GFSGBSN_925_thetae_048.txt.gz
Theta_e
306 306 307 307 307 307 307 306 305 305 305 306 306 307 307 307 307 307 306 306 305 306 305 304 309 313 314 317 318 314 314 318 316 312 313 313 314 312 312 312 313 314 314 314 316 319 326
306 307 306 306 304 304 305 306 304 303 303 304 304 305 306 307 307 306 306 306 305 305 305 304 307 312 315 317 308 313 316 316 314 312 312 313 314 311 312 316 317 317 317 315 315 317 324
305 306 306 305 305 305 304 304 304 304 304 303 304 304 304 305 307 306 306 305 305 305 305 303 306 312 313 314 306 318 317 318 316 314 311 312 314 314 315 316 317 317 316 315 316 316 323
305 305 305 305 304 304 304 304 303 304 304 304 303 302 303 304 305 306 306 306 306 305 304 304 308 313 314 308 307 310 310 314 315 316 314 314 314 315 316 316 315 316 315 316 315 316 323
304 305 305 304 304 304 303 303 304 303 303 304 304 304 303 303 303 304 305 306 305 303 304 309 312 313 315 313 315 313 312 313 316 316 317 316 314 314 315 315 314 315 315 316 316 317 323
303 303 304 304 304 304 304 304 304 304 304 303 303 304 304 303 301 303 305 305 302 307 308 315 316 315 314 312 313 316 315 313 314 317 316 314 313 314 312 312 316 316 316 316 317 321 324
303 303 303 304 304 305 305 305 305 304 304 304 303 302 304 303 302 303 306 305 307 313 314 319 318 316 312 316 318 315 315 314 313 315 314 315 315 315 313 312 315 316 316 316 315 319 326
302 302 304 304 304 305 305 306 305 305 305 304 304 303 302 303 303 302 306 305 306 305 308 309 314 317 316 317 320 318 314 312 314 317 313 315 316 315 315 314 315 316 316 317 315 320 323
301 302 302 303 304 304 305 305 304 304 304 304 304 304 304 302 302 302 306 305 307 308 310 311 311 314 315 316 320 318 311 311 316 318 315 315 316 316 316 316 317 317 317 317 316 320 320
299 300 302 302 303 304 303 303 303 303 303 303 303 303 304 303 302 304 306 307 306 307 314 311 311 310 311 311 310 311 310 311 314 319 318 316 315 316 317 317 316 317 318 317 320 319 319
299 299 301 301 301 302 301 302 302 303 303 303 303 303 304 303 302 302 307 304 307 311 296 303 309 309 311 309 310 310 310 312 313 318 318 319 317 317 318 318 317 319 319 318 319 319 319
298 300 300 300 301 301 300 301 303 303 304 304 304 303 303 304 304 302 302 307 310 317 311 311 311 310 310 309 313 313 311 313 313 315 316 317 316 315 316 317 318 319 320 320 320 320 322
298 298 300 300 300 300 300 301 302 303 303 304 304 304 303 303 302 302 303 308 314 310 305 305 315 317 314 310 311 313 313 313 313 315 315 315 316 316 316 317 317 317 319 322 323 323 323
297 298 299 300 300 300 300 301 301 302 303 304 304 304 303 303 303 302 303 312 313 307 306 308 308 308 317 315 313 314 314 313 311 314 315 317 319 317 317 317 318 317 317 320 323 326 324
298 298 298 299 299 300 300 300 302 302 303 304 304 304 304 303 303 303 305 312 312 308 306 305 305 304 305 317 317 317 316 315 313 312 317 318 318 317 316 317 317 318 319 318 326 327 326
297 298 297 298 298 299 300 299 301 302 303 304 305 305 304 303 303 303 306 309 309 307 308 308 306 307 309 307 313 315 317 316 316 314 313 316 319 318 317 317 316 318 319 323 325 329 327
296 297 297 298 298 299 299 300 301 302 302 304 305 305 304 303 303 303 305 305 306 307 307 309 309 307 307 308 310 311 312 316 315 316 314 314 316 318 318 319 318 318 319 321 324 324 325
296 296 297 297 298 299 299 299 301 301 302 303 306 306 303 303 304 305 303 305 305 306 307 307 308 309 309 309 310 310 312 315 320 320 315 314 316 317 316 317 318 317 318 319 325 326 323
296 296 297 298 298 298 299 299 300 301 302 305 306 304 303 303 305 305 304 303 305 306 306 307 308 307 307 308 309 311 314 315 318 321 320 321 317 317 318 317 317 319 318 318 320 321 323
296 296 298 298 298 299 299 299 300 301 301 304 300 304 304 303 302 303 304 304 304 304 305 305 306 306 306 308 308 309 310 314 318 320 320 321 320 317 319 318 318 320 320 318 319 318 319
296 297 298 298 298 298 298 299 300 300 301 304 299 303 305 306 304 304 304 305 305 304 305 306 307 305 307 307 308 307 309 316 318 320 322 324 324 319 317 317 319 319 319 320 320 319 320
297 298 298 299 299 299 299 299 300 300 301 304 299 303 304 303 305 305 304 305 305 305 306 305 306 307 305 306 307 308 308 309 320 321 321 321 324 321 319 318 317 318 320 320 320 319 318
297 298 298 299 299 299 299 300 301 301 302 303 303 300 305 305 305 307 305 304 305 305 305 305 305 306 306 306 307 309 308 312 318 321 320 321 321 321 320 318 319 319 319 319 318 318 320
298 298 299 299 299 300 299 300 301 302 302 303 303 303 304 307 304 306 305 305 304 306 305 305 305 306 306 306 313 315 314 316 318 319 319 319 317 320 319 317 323 319 317 317 317 317 316
298 299 299 299 299 299 299 299 300 299 302 303 303 303 304 306 305 304 305 305 305 304 306 306 305 305 305 305 308 312 309 313 314 317 319 317 316 317 320 322 320 319 319 318 318 318 316
298 298 299 299 299 299 299 298 299 299 301 302 302 301 303 306 306 305 304 305 305 305 305 305 305 305 305 306 308 310 311 313 315 316 317 314 314 316 317 319 324 318 317 317 317 317 316
300 300 300 301 301 301 300 300 300 299 299 302 301 300 301 302 303 305 304 306 304 304 305 305 305 305 306 304 306 307 308 314 314 315 317 314 313 316 317 319 320 318 318 317 320 317 318
301 301 302 302 302 302 302 301 301 300 300 300 301 299 299 298 301 305 305 305 305 305 305 304 306 306 305 306 306 306 304 312 312 313 315 314 316 315 317 320 319 319 317 320 318 317 317
301 301 301 301 301 301 301 301 301 301 301 300 300 298 299 300 301 304 306 306 305 305 305 305 306 307 307 308 305 306 307 302 308 311 311 315 315 316 318 316 318 318 316 318 316 316 318

GFSGBSN_925_thetae_051.txt.gz
Theta_e
305 305 306 306 305 305 307 307 305 304 304 303 304 304 304 305 306 307 307 306 306 305 305 305 304 306 312 315 316 311 313 313 315 314 311 312 312 310 311 311 312 312 314 315 314 315 321
305 305 305 304 304 304 305 305 304 304 304 304 303 303 303 303 304 305 306 307 306 306 306 305 304 307 313 314 307 309 313 316 315 312 312 311 311 311 312 311 316 315 316 314 314 322 327
305 305 305 304 303 304 304 304 304 303 303 304 304 304 302 302 302 304 304 304 304 305 306 305 305 309 312 310 306 315 315 316 314 313 311 311 312 314 313 315 315 316 315 313 314 315 323
303 304 305 304 303 303 304 304 303 303 304 303 303 304 304 304 302 302 301 301 304 304 304 305 307 310 313 307 307 308 307 311 312 311 313 313 312 313 313 314 314 315 314 315 315 316 320
303 302 303 303 303 303 303 304 304 304 304 303 303 302 302 303 304 303 302 302 303 304 305 305 310 312 314 311 314 313 314 311 310 313 314 315 313 312 314 313 313 313 312 314 315 315 321
302 302 302 303 303 302 303 303 304 304 304 304 304 304 302 302 302 303 302 302 304 308 307 310 314 313 312 313 313 317 316 313 312 314 316 314 312 312 310 312 315 313 315 315 315 315 323
302 302 302 302 304 304 305 305 305 305 305 304 304 304 304 302 302 302 302 304 302 309 308 315 316 316 315 314 317 316 315 313 312 314 315 312 313 314 313 312 313 314 315 315 313 313 319
300 300 301 302 302 303 304 305 304 305 305 304 304 304 304 304 303 302 301 305 305 305 309 309 308 310 314 315 317 315 315 313 313 313 314 314 315 314 313 313 314 314 314 314 314 314 320
300 300 300 301 303 303 303 304 304 303 303 303 303 304 304 304 304 301 304 305 306 306 311 312 310 309 307 314 317 315 315 311 312 314 313 316 315 315 315 315 315 314 314 314 315 315 319
300 299 299 300 301 302 302 302 301 301 302 303 303 303 303 303 303 303 303 305 303 307 309 308 311 308 309 312 314 313 314 310 312 314 316 314 315 314 315 316 314 315 314 316 317 317 318
299 298 298 298 301 301 299 301 301 300 301 303 303 303 303 303 303 303 302 302 304 307 299 302 309 308 310 309 308 310 310 310 311 317 317 319 316 314 316 316 315 316 316 317 317 317 317
299 297 298 300 299 299 299 300 299 300 301 303 303 304 304 304 305 303 302 302 308 315 310 307 309 311 310 309 308 310 309 310 310 313 315 317 315 315 315 316 315 316 317 317 318 317 321
298 297 298 299 298 299 300 300 299 300 301 302 303 304 304 304 302 302 302 305 318 313 305 304 308 310 311 310 309 312 310 312 313 315 314 314 315 315 315 316 316 316 317 319 320 321 323
297 297 298 298 299 299 299 299 299 300 301 301 303 304 304 304 303 303 303 308 317 308 307 305 305 305 315 310 310 312 312 309 310 314 313 314 316 314 314 316 317 316 317 319 322 323 321
297 297 297 297 298 299 298 299 299 299 300 301 302 304 305 304 303 303 302 308 313 310 307 308 306 306 306 311 315 314 313 313 310 310 315 315 315 315 315 315 315 316 317 316 322 324 325
297 297 297 297 297 297 297 299 299 299 299 300 303 305 305 304 303 303 304 305 309 308 307 309 306 306 308 307 311 311 316 315 314 311 312 314 318 316 316 315 315 316 317 321 321 326 328
296 296 296 296 296 296 297 298 298 299 299 300 303 306 304 304 303 303 304 303 305 305 305 307 310 309 309 308 308 309 310 315 316 317 311 312 315 315 315 316 316 316 317 320 320 320 322
296 296 295 295 296 296 297 298 298 299 299 301 304 305 303 303 304 304 303 303 303 304 306 307 306 308 308 307 309 309 310 313 318 319 318 313 314 316 315 314 316 315 316 318 321 324 321
295 295 295 296 296 295 297 298 298 298 299 303 304 302 303 303 305 304 304 303 302 305 305 307 307 306 306 306 306 308 310 312 313 320 320 320 318 316 317 315 314 314 315 317 319 320 322
295 295 295 296 296 295 297 298 298 298 299 301 298 303 303 303 302 303 304 305 303 303 304 305 305 305 306 307 308 308 309 309 309 320 320 319 322 319 319 317 315 318 317 317 318 319 319
294 295 295 296 296 296 297 298 298 299 299 301 299 301 304 305 304 304 304 304 305 304 303 305 304 305 305 306 306 307 308 310 313 320 321 321 323 322 321 321 319 316 317 318 318 318 319
296 296 295 296 296 297 298 298 299 299 299 302 298 304 305 304 305 305 305 305 304 304 304 305 305 306 305 305 305 306 306 306 310 315 319 320 321 320 321 321 318 317 316 316 316 318 317
298 298 297 297 297 298 298 298 298 298 298 301 300 300 304 306 305 305 304 304 304 305 305 303 304 304 305 305 304 304 305 306 307 311 316 319 317 317 319 318 319 318 317 316 316 318 319
298 300 298 298 298 298 298 299 299 299 298 300 300 302 304 306 305 305 305 304 304 304 305 304 304 304 304 304 303 307 310 312 315 316 315 317 316 316 318 315 325 318 313 315 317 317 316
297 298 298 298 298 298 299 299 299 299 299 300 300 303 304 305 305 305 305 305 304 303 304 304 304 304 303 304 306 307 306 312 312 315 317 314 313 314 313 317 316 313 317 315 319 319 315
297 297 297 298 299 299 299 299 300 300 299 301 301 303 303 305 305 305 304 305 305 303 303 303 304 304 304 304 307 310 309 310 314 316 315 313 312 310 316 317 316 310 312 314 318 321 317
299 299 299 299 299 299 298 298 299 299 301 302 302 301 302 304 304 305 305 304 303 303 303 303 304 304 303 302 306 307 308 309 311 314 315 313 313 317 315 317 315 313 314 317 320 319 318
301 301 301 301 301 300 300 300 299 299 299 300 300 301 300 300 301 304 305 304 303 303 303 303 306 304 302 303 305 305 302 307 310 311 313 312 314 315 316 317 315 317 316 318 316 314 316
300 300 300 301 301 301 301 301 301 300 299 299 299 299 299 300 302 301 302 304 303 303 304 305 306 306 305 305 303 303 302 299 307 309 311 313 311 311 313 314 312 316 315 314 313 317 316

GFSGBSN_925_thetae_054.txt.gz
Theta_e
305 304 304 304 304 304 304 306 304 304 304 304 304 304 303 302 303 303 303 304 305 305 305 304 305 307 309 312 314 306 311 311 316 314 312 311 311 309 310 308 309 310 311 312 312 312 317
304 304 304 303 303 303 304 303 303 303 303 303 303 303 304 304 304 303 302 302 302 301 303 304 304 307 311 310 306 308 312 315 313 312 311 310 310 309 310 310 312 313 314 313 312 316 320
303 303 303 305 304 303 303 303 303 303 303 303 303 303 303 303 303 304 303 303 302 301 302 303 304 308 308 308 303 312 311 314 313 311 310 311 311 312 312 314 313 315 314 312 313 314 323
303 302 303 303 303 303 303 303 303 303 303 303 303 303 303 303 301 301 302 302 301 301 302 304 306 308 310 305 306 307 306 307 313 311 312 313 311 310 312 313 313 314 312 314 313 318 318
302 302 302 302 302 302 302 302 302 302 303 304 304 304 304 304 303 302 302 301 301 304 307 307 307 308 310 308 313 311 312 309 309 311 312 313 312 312 312 313 313 310 312 312 313 313 320
302 302 302 302 302 303 303 304 304 304 304 304 304 304 304 304 304 303 302 300 304 308 307 307 311 307 307 305 312 315 315 312 311 312 314 313 311 311 309 311 315 314 314 313 313 315 320
301 301 301 301 301 302 302 304 303 303 304 304 304 304 304 304 304 304 303 303 304 305 305 310 311 311 311 314 315 315 313 312 311 313 314 313 313 315 312 312 311 311 313 314 312 312 314
301 300 300 300 301 301 303 304 303 303 304 303 302 303 303 304 304 304 302 304 305 304 307 307 307 308 309 312 313 311 313 313 312 313 313 312 315 313 313 312 313 313 314 313 311 312 313
300 300 300 300 300 300 301 302 302 302 301 301 302 303 303 304 303 303 303 304 304 303 309 309 308 309 308 308 310 309 314 311 312 312 315 315 315 313 314 313 314 313 313 313 313 313 314
300 299 298 299 299 301 301 301 301 301 302 300 301 303 303 304 303 302 301 303 302 305 311 307 311 309 307 311 312 310 311 311 312 312 313 314 315 314 314 314 313 314 312 314 314 315 317
298 299 298 298 299 298 299 298 299 300 299 299 302 302 303 304 303 303 302 303 301 307 302 302 309 307 310 307 306 310 311 310 311 314 315 316 315 315 315 314 313 315 314 314 315 315 316
298 298 298 298 298 299 298 298 299 300 299 299 301 302 303 304 304 303 303 302 306 315 314 306 308 310 311 310 308 309 309 309 310 313 315 314 314 313 315 314 313 315 316 315 316 315 318
298 298 299 297 298 298 298 299 299 299 299 299 300 301 302 304 303 302 302 303 312 313 307 303 305 308 310 311 309 309 309 309 309 312 312 313 315 315 314 315 314 315 315 318 319 321 322
298 299 298 298 297 298 298 299 298 298 298 299 299 301 302 304 304 304 302 306 310 310 308 307 306 306 308 309 309 309 307 306 307 312 313 314 314 314 313 315 316 314 315 318 322 321 318
298 298 297 298 296 298 298 298 298 297 299 299 299 300 303 304 304 303 302 305 307 309 307 308 307 306 308 307 311 312 309 307 307 312 315 314 314 313 313 314 315 316 316 315 319 322 323
296 297 297 298 296 297 297 298 298 297 299 298 300 301 302 304 304 303 304 304 306 309 306 306 308 308 309 308 309 309 315 315 313 309 312 314 316 315 315 314 314 315 315 320 317 324 325
296 296 297 297 296 297 296 297 298 296 298 299 300 302 303 304 304 304 305 304 302 302 302 306 308 309 309 308 308 308 309 315 315 318 311 312 313 314 314 315 315 315 315 318 318 317 320
296 296 296 297 297 296 296 297 298 297 298 299 300 302 303 304 304 303 304 304 303 302 303 306 306 307 308 307 306 308 311 314 307 317 318 316 313 313 313 312 314 314 315 317 319 320 318
295 295 296 297 296 296 296 297 297 296 298 299 301 302 302 303 306 305 305 304 302 303 304 306 307 306 306 306 304 307 309 311 308 317 320 318 319 316 316 314 313 313 313 314 317 316 318
295 295 296 296 296 295 296 296 296 296 297 299 299 302 303 304 303 304 305 305 303 302 302 304 305 305 306 306 306 307 308 308 310 316 320 318 320 321 321 321 321 320 317 313 315 316 317
294 294 294 295 295 295 295 296 296 296 297 299 299 300 303 304 303 304 304 305 304 303 302 303 303 304 305 305 304 306 307 307 306 311 318 319 318 321 321 320 320 319 318 316 316 315 317
294 295 296 296 296 296 295 296 295 296 297 299 298 302 304 305 304 305 305 304 305 304 304 303 304 304 304 305 304 305 304 304 306 310 315 317 318 318 318 319 315 317 318 315 315 314 316
295 296 297 298 298 298 297 296 296 297 298 299 299 298 304 305 305 305 305 305 304 304 304 303 303 303 303 303 303 303 303 304 305 307 308 316 316 314 316 315 316 317 314 311 315 315 316
296 297 297 297 298 299 298 297 297 297 298 299 299 300 303 304 305 305 305 304 304 304 304 305 303 303 303 302 303 303 302 304 305 307 310 316 315 312 315 312 317 313 312 315 314 314 310
297 296 297 298 297 299 299 298 298 298 298 299 298 301 302 303 304 305 305 304 304 303 304 304 304 304 302 304 306 307 304 310 310 310 312 314 313 310 311 313 313 312 315 317 315 313 309
297 297 298 298 298 298 298 298 298 298 298 299 299 300 302 303 304 305 306 305 304 304 303 303 303 302 303 304 308 310 309 309 312 313 312 310 310 311 314 312 312 307 309 314 314 314 316
298 298 298 298 299 298 298 298 298 299 299 299 299 299 301 302 303 304 306 306 304 303 303 302 303 303 302 304 309 310 310 307 309 312 314 312 314 316 314 315 311 310 313 316 317 308 313
298 299 299 299 299 299 299 298 298 299 299 300 299 300 300 298 302 303 304 305 304 303 303 303 305 302 301 304 305 306 302 306 307 310 311 311 312 310 314 317 312 313 315 316 313 312 314
300 300 300 301 301 301 300 300 299 298 298 300 300 301 300 300 302 302 304 304 303 303 303 304 304 302 302 302 300 301 302 299 307 309 309 311 309 309 310 310 309 315 313 312 313 313 314

GFSGBSN_925_thetae_060.txt.gz
Theta_e
303 304 304 305 305 304 304 304 303 303 303 304 303 303 303 305 304 304 303 303 303 302 302 302 303 304 309 307 304 304 305 309 318 316 314 316 316 316 316 315 316 316 316 317 317 317 317
304 303 303 302 302 303 303 302 302 302 302 302 301 302 304 305 305 304 304 304 304 304 304 303 305 306 310 309 303 305 308 310 313 315 315 315 316 316 315 315 315 316 317 316 317 318 319
303 302 302 302 302 301 302 302 302 302 302 302 304 304 304 304 303 303 303 303 304 304 303 304 306 307 309 309 304 304 303 304 308 313 315 316 316 315 315 315 315 316 316 317 318 318 318
304 303 302 301 301 302 302 301 303 303 303 303 302 303 303 302 303 303 303 304 303 303 303 307 308 308 308 307 304 305 305 307 306 309 312 312 314 315 315 316 316 316 317 318 318 318 319
302 302 302 302 303 301 301 301 301 301 302 302 301 303 302 302 303 303 304 303 303 304 307 307 309 309 309 305 308 307 310 308 307 308 311 313 314 316 316 316 317 318 317 318 318 318 321
302 302 302 302 302 300 300 301 301 303 302 302 302 303 303 302 303 303 303 303 304 309 309 309 309 309 308 305 308 313 313 312 309 309 314 315 316 316 317 316 318 318 318 318 318 318 319
302 302 302 301 301 300 301 302 300 302 302 301 301 302 300 301 303 303 304 307 307 308 305 306 308 310 309 311 312 309 314 314 312 311 316 317 318 317 316 317 316 316 317 317 316 317 318
301 300 302 302 300 301 302 301 302 301 300 300 299 301 300 301 303 303 305 307 303 303 306 306 307 307 306 306 310 310 313 312 315 312 315 319 320 317 316 317 317 315 316 316 317 317 316
300 301 300 299 300 301 300 301 300 299 299 299 299 300 299 301 303 304 305 306 304 303 307 308 309 308 308 306 308 310 313 314 315 317 312 318 317 317 318 316 316 316 316 317 317 317 316
299 300 299 300 300 301 298 299 298 299 299 298 299 300 299 300 304 305 306 305 304 304 310 308 309 310 309 307 307 307 308 312 312 314 315 313 313 316 318 317 316 316 316 316 317 318 316
299 299 300 300 297 298 298 299 297 299 298 297 298 299 299 301 304 305 305 304 304 306 309 307 309 309 309 308 306 309 306 307 308 309 315 315 314 313 316 317 316 317 316 317 318 319 317
299 298 299 300 299 297 298 298 296 298 297 299 298 299 299 302 304 304 304 304 306 313 308 307 307 308 310 309 308 310 309 308 309 309 314 315 315 314 314 314 316 316 317 318 318 318 320
298 297 298 299 299 297 297 298 296 297 297 298 297 298 299 301 304 303 303 306 311 307 305 309 308 308 308 308 310 310 311 309 310 309 313 314 315 316 316 314 316 317 318 320 320 322 321
297 298 298 298 298 299 298 298 296 296 297 297 297 298 300 301 303 303 304 308 309 304 306 309 308 308 308 310 311 311 312 311 310 309 311 312 316 315 317 317 317 318 318 320 322 323 323
297 297 297 298 298 298 298 296 296 296 297 297 297 299 300 301 302 304 305 308 304 305 307 309 308 308 309 309 309 311 312 312 310 311 311 313 314 315 316 317 317 318 319 318 320 324 325
296 296 297 297 297 297 295 296 297 296 296 296 299 300 300 301 303 304 305 304 305 306 307 307 309 309 309 309 309 312 313 311 312 312 311 314 315 314 316 317 318 319 319 320 320 322 324
296 296 296 296 296 296 296 296 297 295 296 297 299 301 300 302 303 304 304 304 304 303 305 307 309 309 309 308 308 308 314 311 309 310 312 312 317 318 316 318 319 319 320 320 321 320 322
295 295 295 295 296 295 296 296 297 295 295 297 299 300 302 303 303 304 304 303 303 304 304 305 307 308 308 308 308 307 308 311 308 311 314 311 315 317 317 316 316 318 319 320 321 322 322
294 295 295 295 295 295 295 295 295 296 295 298 299 299 302 302 304 303 303 303 305 304 304 304 305 307 308 308 308 306 308 308 307 309 318 319 314 313 312 313 315 317 317 317 319 320 323
295 295 295 295 295 295 295 295 295 296 295 297 299 301 301 302 303 304 303 304 304 304 305 305 305 306 307 308 308 308 307 307 307 310 314 319 321 315 315 315 318 320 319 320 319 321 320
294 295 295 294 295 295 295 295 296 296 295 296 298 301 301 303 302 302 303 305 304 304 304 304 304 305 306 307 307 307 307 307 306 309 312 317 320 319 319 318 319 320 320 319 321 320 321
294 294 295 295 294 294 295 295 295 295 295 296 298 298 301 302 302 302 301 302 305 304 304 305 305 305 306 307 307 307 306 307 307 307 308 311 315 316 315 315 317 316 316 317 317 320 320
294 294 294 295 295 295 295 295 295 295 295 295 296 297 299 300 301 303 303 304 304 304 304 304 305 305 306 306 306 306 306 307 307 308 308 310 316 314 312 314 314 314 314 315 318 319 320
294 294 294 294 295 295 295 295 295 295 296 295 296 297 298 299 302 301 301 303 305 304 305 305 304 306 305 305 306 306 307 306 307 308 308 309 315 317 314 316 314 313 316 316 319 318 318
294 295 295 295 295 295 295 295 295 296 296 297 295 298 299 299 299 300 302 303 304 304 305 306 305 305 304 305 308 308 309 309 309 309 309 308 312 317 316 314 311 311 313 315 318 315 315
296 295 296 296 295 296 296 296 296 297 297 298 297 296 299 302 301 299 301 301 304 305 305 306 304 304 304 308 308 309 311 309 311 310 308 309 310 315 317 314 315 311 314 314 314 312 314
297 297 297 297 297 297 297 296 297 297 298 299 296 296 298 299 300 301 302 303 304 306 306 306 305 304 303 308 308 309 310 309 312 313 312 311 313 314 315 316 314 313 313 315 313 316 315
297 297 297 297 297 298 298 297 297 297 298 299 298 296 298 299 298 300 302 302 304 304 306 305 306 306 306 310 308 308 309 309 309 311 312 312 312 314 313 315 315 313 314 314 318 315 316
298 298 298 299 298 298 298 298 298 298 298 298 297 296 297 299 300 300 301 302 302 302 304 305 305 306 307 307 308 308 309 311 309 311 311 314 311 313 312 313 316 315 316 313 313 314 312

GFSGBSN_925_thetae_063.txt.gz
Theta_e
305 304 304 303 303 304 305 305 302 302 302 302 302 301 303 306 306 304 303 303 303 303 304 304 305 307 306 312 314 312 305 310 319 317 317 317 318 319 319 317 317 318 318 318 318 318 318
304 304 304 302 303 303 303 303 302 302 302 302 304 304 304 303 303 302 303 303 303 303 304 304 306 307 308 310 310 311 307 306 308 317 318 317 318 318 318 318 318 318 318 318 318 318 319
305 305 303 302 302 301 302 302 301 303 304 304 303 302 302 303 302 302 303 303 303 303 303 303 307 308 309 308 309 309 307 306 305 305 313 317 317 318 318 318 318 317 317 318 318 318 318
303 303 303 303 301 302 301 301 301 301 302 302 302 301 303 302 302 302 303 303 303 303 303 306 307 310 310 307 308 310 310 308 308 307 307 314 316 319 318 317 317 317 317 318 319 319 319
304 303 303 303 301 302 302 300 301 301 302 302 302 302 302 301 301 302 303 303 304 305 307 308 311 311 310 308 308 308 308 309 310 309 308 309 315 317 319 318 319 320 319 319 320 320 320
302 303 303 303 303 300 301 301 301 300 301 302 302 301 302 300 300 301 303 305 306 307 310 310 310 312 311 309 308 312 314 313 313 313 311 310 315 318 317 318 319 320 320 320 320 321 320
303 302 303 302 303 301 301 302 301 302 302 300 300 299 300 299 300 302 305 308 309 312 309 308 309 312 309 311 310 312 314 315 313 313 314 311 314 319 318 318 318 319 321 321 321 320 320
301 302 302 301 302 301 301 302 302 301 299 300 299 299 300 299 299 302 307 308 307 306 309 307 308 309 308 307 308 311 314 314 315 317 315 313 315 316 317 317 318 319 319 320 320 319 319
300 300 300 301 302 299 301 301 300 300 298 299 299 298 300 299 300 306 306 307 306 306 309 309 310 310 310 309 308 310 312 314 316 318 318 315 315 317 316 317 318 320 320 320 320 320 319
300 300 299 300 301 301 300 301 300 299 297 299 298 297 299 298 303 306 307 306 307 307 313 311 311 312 311 309 308 307 311 314 316 319 319 317 315 317 318 318 319 320 319 319 319 320 321
300 300 299 299 299 300 298 297 298 299 297 298 297 298 299 299 303 305 306 306 307 307 316 308 312 311 311 310 309 310 307 312 314 315 313 319 316 314 317 318 319 320 319 319 318 320 321
300 299 299 298 297 299 298 297 297 298 296 297 297 298 298 302 304 306 305 306 308 316 314 309 309 310 311 311 311 310 309 308 311 313 312 312 313 316 315 314 316 317 318 319 319 321 325
299 299 298 298 298 298 297 297 297 298 296 296 297 298 298 301 303 305 305 307 314 311 307 309 310 309 309 311 312 310 312 311 308 310 314 314 313 314 317 315 315 316 319 322 323 325 325
297 298 298 298 298 298 298 297 298 298 296 296 297 297 299 301 302 305 306 310 311 306 306 309 309 308 308 311 313 313 313 312 310 312 315 315 315 315 316 317 316 317 319 322 326 327 325
297 297 297 298 298 298 298 298 297 297 296 296 297 298 299 301 302 303 308 311 307 306 307 308 306 305 307 310 311 313 314 315 312 311 313 314 312 313 314 317 317 318 320 318 321 326 328
296 297 297 296 296 297 297 297 297 296 297 296 298 300 301 301 302 304 308 307 306 306 308 307 306 306 309 310 312 313 315 314 314 313 312 314 314 313 315 316 317 318 319 320 321 325 327
296 296 296 297 296 296 296 297 295 296 297 296 297 300 301 302 303 305 309 306 305 305 307 307 307 308 308 310 310 312 318 315 313 312 315 313 315 315 316 317 319 319 320 322 320 321 325
295 295 295 296 296 296 296 295 297 296 297 296 298 302 302 302 306 306 306 305 304 305 305 306 306 308 309 310 310 310 311 312 311 311 321 314 314 315 320 316 317 319 320 321 324 327 324
295 295 295 295 295 295 295 295 296 296 296 297 299 300 302 303 306 306 305 304 304 304 305 305 305 306 307 308 309 309 309 309 309 310 315 317 313 316 317 320 316 318 320 321 322 323 328
295 295 295 295 296 296 295 295 294 295 295 296 300 303 301 304 304 305 304 305 305 304 305 305 305 305 306 308 308 309 310 309 308 308 312 313 321 316 314 317 316 317 319 319 319 324 325
294 294 294 295 295 296 295 295 296 295 295 296 299 301 302 304 304 304 304 306 304 304 304 304 305 306 306 307 307 308 309 309 309 308 309 312 322 322 318 319 319 316 317 317 319 320 322
294 294 294 295 295 295 295 295 295 295 295 297 299 299 300 302 303 303 303 305 304 306 305 305 306 305 305 306 306 308 308 309 309 309 310 312 316 319 320 318 319 320 319 319 319 319 320
294 293 294 295 295 295 295 295 294 295 295 297 297 297 301 301 302 304 305 303 303 304 305 306 305 305 306 306 307 308 309 309 310 310 310 311 311 318 320 315 315 318 318 318 318 318 319
294 294 294 294 295 295 295 295 295 295 296 295 297 297 300 301 300 302 301 303 303 304 304 304 305 305 306 308 307 307 307 307 308 309 309 310 312 312 317 315 319 315 315 316 317 319 319
294 295 295 295 294 294 295 295 295 295 296 296 296 298 299 300 299 301 302 303 303 304 305 305 306 306 307 307 308 308 309 309 310 309 309 310 312 315 316 315 314 312 312 316 319 318 317
295 296 296 295 294 295 295 295 295 295 294 296 297 297 299 299 300 299 300 300 303 305 305 305 307 307 306 307 311 310 311 310 311 310 309 310 310 314 316 315 316 313 314 315 317 319 315
296 297 297 298 297 296 296 296 295 295 295 296 296 297 298 300 300 300 302 301 302 304 306 306 306 305 303 309 311 310 310 311 313 311 311 313 312 313 314 315 313 313 313 314 315 318 316
296 297 297 297 298 297 297 296 296 296 296 297 297 297 297 300 300 300 301 303 303 304 306 307 307 306 306 310 308 309 311 311 312 313 311 311 312 313 313 313 314 314 312 316 317 317 315
297 297 297 297 298 298 297 297 297 297 297 297 298 297 297 298 300 299 299 299 301 303 304 303 306 307 307 308 309 310 312 312 312 316 312 312 311 312 311 311 316 317 317 315 315 315 314

GFSGBSN_925_thetae_066.txt.gz
Theta_e
304 305 305 304 304 304 304 304 305 302 302 302 303 305 304 306 306 305 302 302 302 302 303 304 304 307 307 307 310 310 311 310 311 319 316 316 316 317 318 319 319 318 317 318 318 319 318
305 306 305 304 303 304 304 304 303 301 302 304 304 303 303 304 304 302 301 302 302 302 303 303 303 307 308 309 307 310 312 310 308 312 319 318 317 317 317 318 319 319 317 317 318 318 319
305 304 304 304 302 302 302 302 302 302 302 301 302 302 301 302 302 301 300 301 302 302 302 303 305 308 310 308 307 307 308 308 307 307 308 315 318 318 317 318 318 318 318 318 318 319 318
305 305 304 303 303 302 301 302 301 301 301 302 303 302 302 301 301 300 299 300 301 302 304 305 307 310 311 308 308 308 309 310 311 309 308 308 313 317 318 319 319 318 318 318 318 318 319
304 304 304 303 301 303 301 301 301 300 301 302 301 303 301 300 300 299 298 301 303 306 306 308 310 312 313 310 310 309 309 311 311 310 309 309 310 314 317 319 319 318 318 318 318 319 320
303 304 303 303 303 303 302 302 300 301 301 301 302 302 299 298 298 298 299 305 309 309 309 311 312 313 313 311 311 311 314 312 310 312 313 311 311 312 317 318 322 319 318 319 320 320 320
302 303 303 304 302 302 302 302 303 302 301 301 301 300 299 298 298 298 301 307 309 312 312 312 312 311 311 310 308 310 313 315 314 315 317 314 313 311 317 318 319 318 319 319 320 321 321
301 301 301 302 302 303 302 301 302 301 299 300 298 299 299 298 298 298 303 310 308 307 309 308 309 309 308 309 309 308 312 315 316 315 316 316 317 314 315 317 317 317 319 321 321 321 320
301 301 301 301 300 302 302 302 301 300 299 298 297 299 298 297 298 303 308 307 308 308 309 310 310 310 311 310 310 309 310 315 316 318 317 319 316 313 315 317 319 319 319 320 320 320 320
301 300 301 301 300 301 299 301 301 299 300 298 297 298 297 297 302 306 307 307 308 307 311 315 312 313 313 310 310 309 309 312 315 319 319 320 320 315 317 320 317 318 318 318 320 321 321
300 300 300 299 299 299 299 298 299 299 299 299 297 297 297 297 301 304 306 306 307 308 317 310 312 312 312 312 311 310 308 311 316 318 320 322 320 316 319 320 318 318 320 321 321 320 321
299 299 299 300 299 298 297 298 298 298 298 299 296 297 298 299 302 304 306 306 308 314 318 309 311 312 312 313 313 311 308 309 313 315 317 316 314 317 318 316 319 319 320 321 322 322 323
297 297 298 298 299 299 298 298 297 298 298 298 296 296 297 299 301 303 304 307 314 313 309 309 310 310 310 310 312 312 311 308 311 314 316 314 315 315 314 316 316 317 321 323 325 326 326
297 296 297 298 299 299 297 297 298 297 298 298 297 297 298 299 300 302 305 309 313 309 311 310 309 309 306 307 312 314 313 313 309 309 311 318 320 317 315 316 319 316 319 324 332 331 325
296 297 297 298 298 298 299 299 298 298 297 297 297 298 299 299 300 302 305 310 307 308 308 308 308 306 306 309 310 313 315 315 314 311 311 315 317 315 316 316 318 318 320 319 322 324 327
296 295 296 297 297 297 296 296 297 296 296 297 298 299 299 300 302 303 306 307 308 308 308 308 307 305 308 309 310 312 315 316 315 313 312 312 314 314 314 316 316 319 318 321 321 328 330
295 296 296 296 296 296 297 297 298 297 296 297 298 299 299 300 302 305 305 306 306 307 306 308 307 306 308 309 310 311 315 317 314 312 313 314 315 315 316 315 318 319 320 320 322 322 328
294 295 296 296 296 296 296 297 297 297 297 297 299 300 301 302 306 304 305 306 306 306 306 305 307 307 309 309 310 310 311 313 311 311 316 317 316 316 315 317 317 317 320 320 325 325 324
295 295 295 296 296 296 296 296 296 295 296 297 301 300 298 303 306 306 305 304 305 305 305 305 306 306 307 308 308 309 310 310 309 310 312 311 317 316 315 318 318 320 318 320 322 326 331
295 295 295 295 296 296 296 295 295 296 295 297 299 301 300 304 304 305 305 306 304 304 304 305 305 306 306 306 307 308 309 310 309 310 310 311 316 320 318 316 321 321 319 320 323 328 328
295 295 295 295 295 295 296 296 296 295 296 296 298 300 301 304 304 304 304 306 306 304 305 304 305 306 306 307 307 307 308 308 308 311 309 313 318 319 320 321 318 316 318 320 325 326 327
294 294 295 295 295 295 295 295 295 295 295 296 298 300 299 300 302 304 303 304 304 306 304 305 305 305 305 306 306 306 307 307 309 312 311 311 318 315 319 320 319 319 319 318 321 320 318
294 294 294 295 294 294 295 296 295 294 295 296 296 297 301 300 301 302 306 304 303 303 304 306 306 306 305 306 308 309 309 309 310 311 312 312 312 315 320 319 319 321 319 321 320 321 321
295 295 295 295 295 294 295 295 295 294 296 296 296 298 300 300 299 301 302 303 304 302 303 303 306 308 307 307 308 308 308 308 307 308 309 311 311 314 318 318 321 317 317 317 318 317 317
295 295 295 296 296 296 295 295 295 295 295 296 296 296 300 300 298 299 300 302 303 304 304 304 305 306 308 308 308 306 308 308 308 308 308 310 311 315 321 320 318 315 314 315 319 320 320
294 295 296 296 296 297 294 295 295 295 295 296 296 297 299 301 300 298 300 300 304 304 305 305 306 307 308 307 307 307 308 308 308 309 309 310 312 313 316 319 318 315 314 313 316 321 316
294 294 295 296 296 297 297 295 295 295 295 296 296 296 298 301 299 299 300 301 301 302 305 306 307 306 306 307 307 308 309 308 314 311 312 312 313 314 315 317 316 312 314 314 319 320 317
294 295 295 296 297 297 297 296 296 296 295 295 295 296 297 298 298 299 300 301 301 304 305 307 307 306 305 306 309 308 310 310 312 313 312 311 313 315 313 314 316 313 313 316 319 316 316
295 296 296 296 297 298 297 297 297 296 296 296 296 297 297 298 299 299 299 299 300 302 304 305 306 307 306 307 307 308 311 313 312 314 313 314 312 313 311 312 317 317 318 316 316 315 314

GFSGBSN_925_thetae_069.txt.gz
Theta_e
306 305 305 305 305 305 304 305 305 303 302 302 302 303 304 304 305 304 301 301 300 299 301 302 304 307 305 307 307 305 306 308 309 311 317 317 312 310 312 314 317 318 316 316 316 316 316
305 305 305 305 305 304 304 304 303 302 302 301 301 302 302 303 304 304 301 299 299 298 300 302 304 308 308 307 304 305 307 307 310 309 315 314 316 312 315 315 315 317 317 317 317 316 315
305 305 305 304 304 303 302 301 303 302 301 301 303 303 303 302 301 300 299 298 297 298 300 303 307 308 308 307 303 305 308 308 308 307 307 307 308 312 315 317 316 316 316 316 317 315 315
304 305 304 304 303 301 302 301 301 301 301 303 303 303 301 300 299 299 298 296 297 302 304 306 307 309 309 305 307 309 309 309 309 309 308 309 308 309 314 316 318 318 316 316 316 316 316
304 304 304 304 303 302 301 303 301 301 301 301 301 301 300 299 299 297 296 297 304 307 308 308 308 310 313 312 311 310 310 309 310 311 311 310 309 310 313 316 318 318 317 316 317 316 316
303 303 303 303 304 303 302 302 302 302 302 301 300 300 300 299 299 296 297 303 308 309 309 310 310 313 313 313 310 309 310 313 310 309 312 310 309 309 312 315 319 319 318 315 316 316 316
303 302 302 302 303 303 303 303 302 301 302 300 300 298 298 299 298 296 298 304 305 309 307 311 312 314 313 312 307 307 308 314 314 310 313 312 311 311 311 314 317 317 319 317 316 317 318
302 302 302 301 301 301 301 303 302 301 301 299 299 297 298 298 297 297 302 306 307 308 308 307 307 307 307 307 308 309 308 309 315 315 314 316 314 314 315 315 314 317 318 317 317 318 319
302 301 301 301 301 301 301 302 301 301 300 299 299 297 297 297 296 303 305 307 308 307 306 307 308 309 309 309 309 309 307 311 314 315 316 318 318 316 316 316 316 317 318 317 319 319 318
301 301 301 301 301 302 300 299 298 300 299 299 299 297 297 296 301 300 302 306 307 307 310 310 311 311 311 310 309 309 308 309 313 316 319 320 318 318 314 315 315 320 319 319 318 318 319
300 300 299 299 300 299 299 297 298 297 298 298 298 298 296 296 298 301 303 305 306 308 311 315 312 311 312 310 310 308 308 308 311 318 318 319 320 321 321 317 316 321 320 319 321 322 322
299 299 298 299 298 298 300 298 298 297 298 298 298 298 296 296 300 301 302 303 306 313 313 310 312 311 312 311 312 309 307 307 310 316 318 318 316 318 318 316 317 318 321 322 321 322 325
298 298 297 297 298 299 299 298 298 298 297 296 298 298 297 298 299 299 301 305 309 310 310 309 310 311 312 310 313 311 307 307 311 314 316 316 316 315 316 318 317 318 322 327 327 323 324
298 297 297 297 298 298 298 298 298 298 297 296 298 297 297 297 298 299 302 308 310 309 310 311 309 309 308 308 308 312 308 306 306 308 309 315 318 314 315 316 316 317 321 326 331 331 327
297 297 296 296 297 297 298 298 296 297 297 296 296 297 298 298 298 299 304 306 307 305 307 309 309 308 307 306 309 312 312 312 308 307 309 313 316 314 316 315 316 321 320 318 323 322 326
297 296 296 296 297 297 297 296 296 297 296 296 298 298 298 297 300 301 304 304 304 305 307 308 308 307 306 310 310 310 314 316 315 311 309 311 314 313 316 316 317 320 318 322 322 329 331
294 296 295 296 296 297 297 297 297 297 298 297 297 297 298 298 298 302 301 303 303 303 304 307 308 308 309 309 308 309 317 317 313 312 312 313 315 314 314 317 317 319 322 322 323 324 328
294 294 295 295 296 296 296 296 297 297 297 296 297 298 299 301 301 303 301 301 302 303 305 306 306 306 307 308 309 310 311 316 311 311 313 311 315 318 315 317 317 318 319 321 326 329 325
294 295 295 296 296 296 296 296 296 296 296 296 298 297 298 300 303 302 302 302 302 302 304 306 306 306 306 306 308 308 309 312 310 311 311 311 315 319 316 316 318 318 318 319 322 323 329
295 295 295 296 296 296 296 296 295 295 295 296 297 298 297 299 299 303 304 303 304 304 304 304 304 304 306 306 306 307 308 311 309 310 311 311 314 317 320 321 320 319 321 320 322 327 327
295 295 295 294 295 295 295 296 296 295 295 295 297 295 298 294 297 300 302 304 306 305 304 304 303 304 304 306 307 307 308 308 308 313 311 314 316 316 317 314 317 320 319 320 322 323 329
295 295 295 294 295 295 294 295 295 295 295 295 297 295 296 298 299 300 299 303 303 303 306 306 305 304 304 305 305 306 310 310 312 312 312 312 315 315 315 317 318 321 321 318 320 323 325
294 294 295 295 295 295 295 295 295 295 295 295 295 295 296 297 299 300 302 303 303 303 303 304 306 307 308 308 307 307 308 308 309 310 311 313 313 315 316 317 317 320 319 319 321 323 322
294 294 295 295 295 295 296 295 295 296 295 295 295 296 295 295 297 299 298 300 304 304 305 304 303 307 307 307 306 307 307 307 307 307 308 311 312 313 315 316 321 318 316 318 319 321 320
294 294 295 295 295 295 295 296 295 294 294 295 295 296 297 297 297 297 298 299 301 302 304 304 305 306 307 308 307 306 304 306 307 307 307 307 309 310 313 317 318 316 315 314 321 320 318
295 294 294 295 295 295 295 296 295 294 295 295 295 295 297 297 296 298 299 299 300 302 304 304 305 305 306 307 303 306 306 307 308 308 307 307 308 308 312 315 321 316 315 314 319 322 317
294 294 295 295 294 294 295 296 297 294 296 295 295 295 295 298 296 297 298 299 301 302 302 302 305 305 304 302 305 304 304 306 308 312 312 308 308 310 310 313 315 314 314 314 320 321 317
293 294 294 294 294 295 296 297 298 295 295 295 295 295 295 293 296 296 297 297 299 301 303 304 305 305 304 300 304 304 304 307 308 309 312 312 309 311 311 311 313 314 315 319 317 314 314
293 293 294 294 295 296 296 297 298 296 295 296 295 295 295 296 296 297 297 298 298 299 301 302 305 304 306 304 303 304 305 306 309 311 312 314 310 310 310 309 314 315 316 315 313 312 310

GFSGBSN_925_thetae_072.txt.gz
Theta_e
305 305 306 306 305 304 305 305 305 302 302 302 301 301 304 304 304 304 302 300 299 299 298 298 301 306 306 307 307 302 305 304 307 310 319 318 315 309 308 310 311 315 317 317 317 315 315
305 305 305 304 304 304 304 303 301 303 302 303 303 303 303 303 303 302 300 299 298 296 297 298 304 307 306 305 301 304 306 306 307 311 311 315 314 311 309 311 311 314 316 317 316 315 315
305 305 304 305 304 303 302 302 302 301 302 302 303 303 302 301 300 299 299 296 295 296 297 300 305 307 306 305 301 302 304 308 308 307 305 307 307 306 310 315 316 315 314 314 314 314 314
305 305 305 304 304 303 302 301 302 301 303 303 301 301 300 299 298 298 298 295 297 305 304 305 306 308 308 303 304 309 309 308 309 309 309 308 309 306 309 312 316 317 316 317 315 314 315
303 303 302 303 303 303 302 302 302 302 301 302 301 299 298 298 298 298 296 298 307 307 307 307 308 308 309 311 312 310 310 309 309 309 310 309 309 307 309 314 315 316 318 316 316 315 315
303 303 303 303 303 303 303 303 303 302 301 301 301 299 298 298 298 298 297 306 307 310 309 309 309 312 311 312 310 309 307 308 311 309 310 309 307 307 307 312 317 318 318 316 315 315 316
302 302 302 302 302 302 302 302 303 302 301 301 300 299 298 297 297 296 299 306 305 306 305 310 311 312 312 311 309 307 307 307 313 308 310 311 310 309 308 309 313 315 316 317 316 317 317
302 303 302 302 302 302 302 302 302 301 301 300 299 299 298 297 297 296 303 305 307 306 307 306 307 306 307 307 308 307 307 306 312 313 311 314 313 311 312 313 315 315 316 316 316 316 316
301 301 301 302 302 302 302 302 300 298 300 299 298 299 298 297 296 301 299 304 305 307 305 306 306 306 307 306 306 306 306 306 312 314 314 314 316 314 314 315 316 315 316 317 319 317 315
301 300 300 299 300 300 300 299 298 298 297 298 298 297 298 297 299 297 302 302 304 306 308 308 309 310 308 309 308 308 307 308 312 314 317 318 317 317 316 317 316 316 315 319 321 320 318
298 300 299 298 298 298 299 299 298 297 298 297 297 297 298 297 298 299 301 300 304 307 305 309 311 310 310 309 308 308 307 307 311 318 317 317 319 320 320 317 314 317 317 320 321 320 321
298 298 298 298 298 298 299 297 297 297 298 298 296 297 298 297 297 297 297 301 305 309 306 310 312 311 312 310 310 306 306 307 308 316 317 316 316 317 317 319 318 315 320 322 321 321 323
298 298 298 298 297 298 298 298 298 297 298 297 296 297 298 297 297 296 298 301 305 310 305 310 312 311 312 312 312 307 306 306 310 313 315 315 317 315 316 318 317 318 322 326 326 326 323
297 298 298 297 297 298 297 298 298 297 296 297 296 297 297 297 297 296 298 304 306 305 308 308 308 310 312 309 310 309 306 306 305 309 308 310 313 316 316 316 319 319 322 327 327 327 327
296 297 298 297 296 296 297 297 296 295 296 296 296 296 297 296 297 298 301 302 304 304 305 306 307 307 307 307 308 310 307 306 305 306 308 309 314 313 314 314 315 318 323 320 324 324 325
296 297 297 296 296 297 297 297 297 297 297 298 297 297 297 296 297 299 302 299 301 302 303 302 306 309 309 309 309 310 312 315 312 307 307 309 312 311 316 316 317 319 318 322 324 327 329
296 295 296 295 295 296 296 297 297 297 297 297 296 294 296 297 298 301 299 299 301 301 301 305 306 307 307 307 307 310 317 316 311 311 311 313 313 313 315 318 318 322 323 322 321 324 331
295 294 294 295 296 296 296 296 296 296 297 296 295 294 297 297 298 301 300 300 300 300 301 302 304 307 306 306 306 308 313 316 311 311 313 310 313 317 316 316 316 318 320 322 328 326 323
294 294 295 296 296 296 296 296 295 296 296 296 297 296 295 297 300 299 299 301 301 301 301 301 305 305 304 305 306 308 312 311 309 310 309 310 314 318 316 317 316 318 318 320 321 322 328
294 295 295 295 296 296 296 296 295 295 295 296 296 293 292 295 295 298 301 302 303 302 302 302 303 304 304 305 305 306 308 312 310 310 310 309 312 315 318 319 318 323 319 319 322 325 323
294 295 295 295 295 294 294 296 295 295 295 295 296 294 293 292 299 299 298 299 300 300 303 304 303 304 304 304 305 305 309 309 311 313 311 310 311 315 316 315 314 319 320 321 324 321 325
295 295 294 294 295 295 295 295 294 295 295 295 294 292 294 295 297 298 298 298 297 300 305 305 305 307 307 306 305 306 309 309 311 310 311 310 312 313 314 315 316 316 317 321 320 322 322
294 294 295 295 295 295 295 295 295 295 294 294 294 294 293 295 295 294 299 300 299 300 303 303 304 305 306 307 307 306 306 307 308 308 310 311 311 311 313 313 314 318 318 319 320 320 322
294 295 295 294 295 295 296 296 295 295 295 294 294 294 294 294 295 295 296 297 298 300 303 303 304 305 306 306 306 306 306 306 307 307 307 310 310 310 312 313 317 315 311 313 318 321 322
294 294 294 294 295 295 295 296 295 295 295 295 294 295 296 295 295 296 297 298 299 299 301 303 304 305 305 306 305 305 303 305 305 305 306 307 308 306 310 312 311 309 315 318 321 322 320
294 294 295 295 295 294 294 295 295 295 295 295 295 295 296 295 294 295 296 298 299 301 302 303 303 302 304 304 306 305 305 306 306 308 305 306 306 306 309 311 313 315 314 315 318 323 318
294 293 294 294 294 294 294 294 294 295 296 293 295 294 295 296 296 296 296 298 300 300 301 303 301 303 302 303 303 304 304 305 305 309 310 306 306 308 308 309 309 311 314 315 320 321 319
294 294 294 294 294 294 294 294 294 295 297 294 295 294 294 295 294 295 295 295 295 298 299 301 302 304 303 300 303 303 301 305 306 307 309 309 309 307 307 309 309 309 316 315 318 314 315
293 294 293 293 293 293 294 294 295 296 297 294 294 294 295 295 292 296 296 296 296 296 297 300 301 301 305 305 301 302 301 300 307 308 311 311 311 310 307 307 312 312 315 313 311 309 309

GFSGBSN_925_thetae_075.txt.gz
Theta_e
304 305 305 304 305 304 304 304 302 302 302 302 303 303 304 304 304 303 302 300 300 301 301 300 303 305 306 305 305 301 304 304 306 311 317 319 315 310 308 307 308 314 315 315 315 314 313
305 305 305 305 304 303 304 304 302 301 301 302 302 302 302 303 302 302 301 299 298 297 297 299 304 305 305 305 302 302 305 305 306 311 315 315 314 312 310 308 307 310 311 313 313 315 315
305 305 304 303 304 304 303 302 301 302 301 303 303 302 301 301 301 300 300 298 296 297 300 303 305 306 306 305 302 302 303 304 307 307 305 306 307 306 307 308 311 313 314 314 313 312 313
305 304 303 303 304 303 302 302 302 301 303 301 301 301 300 298 298 297 297 296 301 305 305 306 306 306 307 306 305 309 309 308 307 308 307 308 307 306 306 307 313 315 315 316 315 313 312
303 302 303 303 302 302 303 303 303 302 303 302 302 301 299 299 298 297 296 303 306 307 307 306 307 308 308 308 311 310 308 308 309 308 308 308 308 306 307 308 312 314 317 316 315 313 313
303 303 303 303 302 302 303 303 302 303 302 301 301 299 299 298 298 297 299 306 307 309 308 308 309 310 309 310 310 310 307 308 308 308 309 308 305 306 305 310 313 316 316 315 314 313 314
303 303 303 302 302 302 302 302 302 301 301 301 300 298 298 298 297 296 301 306 306 306 306 309 311 311 310 311 308 307 307 306 311 307 308 309 307 307 306 307 311 313 314 314 313 313 315
301 301 302 303 302 302 302 302 301 298 298 298 299 298 297 297 297 297 301 304 302 301 307 306 306 306 308 309 308 307 307 307 307 312 308 311 311 309 308 308 311 313 314 315 314 315 317
301 301 301 301 301 302 302 301 300 298 297 297 297 298 297 297 296 298 299 301 300 301 305 305 305 305 306 306 307 306 306 305 310 311 311 310 312 314 312 312 314 314 314 315 316 317 317
300 300 299 299 300 298 299 300 300 298 297 296 297 297 297 297 296 297 300 299 301 302 305 306 307 307 307 306 306 305 306 306 308 313 313 313 313 316 315 315 315 317 313 315 320 321 320
298 299 299 299 299 297 297 297 298 297 296 297 298 296 296 298 297 297 299 297 301 305 306 306 311 309 308 308 308 307 306 306 311 317 316 315 317 318 318 317 315 317 316 319 320 321 320
297 298 298 298 297 297 297 298 298 297 297 299 297 296 297 298 297 297 296 298 304 305 302 306 311 311 310 310 309 306 306 306 307 315 316 314 315 316 316 316 316 315 320 320 320 321 326
297 298 297 298 297 298 297 298 298 298 297 296 297 296 297 299 297 297 296 299 303 307 303 308 308 307 311 312 311 307 306 306 308 313 314 314 316 314 316 316 317 318 321 324 325 326 325
297 297 298 297 296 297 297 297 297 296 296 296 296 296 295 295 295 296 297 301 304 301 305 305 305 305 309 311 311 308 306 305 305 309 308 311 308 315 315 315 318 319 320 324 326 326 321
295 296 297 297 297 296 296 297 295 297 297 297 296 295 295 295 296 297 299 299 300 302 304 302 304 309 308 307 306 307 306 306 304 306 308 307 310 313 314 314 316 321 321 319 325 323 323
295 296 296 296 296 296 296 297 297 297 297 297 295 295 295 296 297 299 299 298 299 301 300 300 305 308 307 306 306 307 307 310 309 305 305 307 310 310 314 314 315 318 318 322 324 326 326
296 296 294 294 295 295 296 296 297 297 297 296 295 292 296 297 297 300 298 297 299 299 299 301 304 306 308 306 306 307 312 314 311 311 308 312 309 310 316 318 320 321 322 321 321 323 329
296 295 294 294 295 295 296 296 296 296 296 295 294 288 296 295 299 296 296 299 299 300 300 300 302 302 308 306 306 308 309 314 313 311 313 310 313 316 315 313 315 319 320 321 325 324 322
295 294 294 295 295 296 296 296 296 295 295 295 294 293 295 296 294 296 298 299 300 299 300 301 301 300 305 306 307 308 311 311 309 309 311 310 313 314 314 316 316 319 319 320 320 321 325
294 294 295 295 295 296 296 296 296 296 295 295 295 287 289 293 293 294 294 297 299 300 300 301 302 302 303 304 305 306 307 307 310 310 312 308 310 312 312 316 317 318 318 320 322 324 324
294 294 294 295 295 295 294 294 296 296 295 295 296 292 291 288 298 298 298 299 298 299 299 301 302 303 304 305 305 305 308 309 311 311 311 308 309 314 314 313 313 314 315 317 320 321 325
293 293 294 295 294 295 295 295 295 295 294 295 295 293 294 294 295 295 297 298 298 300 300 301 303 303 304 307 306 305 307 308 310 309 310 309 310 311 312 312 313 311 311 313 315 320 321
295 294 294 295 295 295 295 295 295 295 294 293 294 294 293 293 294 291 290 297 297 297 299 301 302 304 303 304 306 306 304 306 307 308 309 309 309 309 309 309 309 312 314 310 314 319 319
293 294 294 294 295 295 295 294 295 294 295 293 293 292 294 292 293 294 295 295 295 296 298 299 301 303 304 303 305 305 305 305 306 306 307 309 309 308 309 309 310 309 305 315 316 318 318
294 294 295 295 294 294 295 294 295 295 295 294 293 295 293 293 294 294 295 296 296 298 299 300 302 303 305 305 304 306 304 304 304 304 305 306 306 306 307 308 306 304 314 317 320 323 321
295 294 295 295 295 294 294 295 294 294 295 295 294 294 295 294 293 294 294 296 296 300 300 301 301 301 304 304 305 305 305 305 305 305 304 305 305 305 307 308 308 310 308 313 314 322 318
294 294 294 294 294 294 294 294 295 295 295 296 294 294 294 296 294 295 296 296 297 299 299 300 299 303 301 302 303 304 305 304 304 307 309 306 305 307 306 307 306 306 306 310 314 322 318
293 293 294 294 294 293 294 294 295 295 295 296 293 293 293 293 292 294 295 295 295 295 299 299 301 300 303 302 304 303 302 304 305 305 308 309 308 304 305 308 308 310 314 313 312 314 311
293 293 293 293 293 293 293 294 294 295 295 297 293 293 293 293 291 295 295 295 295 294 296 298 298 301 300 302 303 304 300 297 304 305 308 302 307 309 306 306 309 307 309 308 310 309 307

GFSGBSN_925_thetae_078.txt.gz
Theta_e
305 305 305 305 304 304 305 305 304 302 301 301 303 303 304 304 303 302 302 300 301 301 302 303 303 304 305 304 303 301 305 303 305 311 313 317 313 310 308 306 307 309 311 312 313 313 312
305 304 304 304 305 304 305 304 302 301 302 302 304 304 302 303 302 301 301 298 297 297 299 302 304 305 305 304 302 301 303 304 304 313 314 315 314 312 311 309 307 307 308 308 309 311 313
305 304 303 303 303 303 302 302 302 302 302 304 303 303 303 302 300 300 299 296 298 302 304 305 305 305 306 305 302 302 302 303 304 306 306 308 309 306 305 306 307 311 313 312 312 311 312
305 304 303 303 303 303 303 303 302 303 303 303 302 302 301 299 298 298 297 299 303 305 307 308 306 305 307 304 305 306 307 309 308 306 307 307 305 305 305 305 308 312 313 315 313 312 311
303 302 302 303 303 301 302 303 303 302 303 302 301 302 300 298 297 297 297 304 305 308 307 306 306 306 308 307 309 310 310 307 307 307 307 307 305 306 306 306 306 310 313 314 314 313 312
302 303 303 303 303 302 302 303 302 301 300 301 302 301 299 298 297 297 300 306 307 309 308 309 308 308 308 308 311 309 307 308 307 307 308 306 304 305 305 306 307 312 314 313 313 312 313
303 303 303 302 302 302 302 303 301 299 298 300 300 299 299 297 297 297 302 305 301 304 302 305 307 310 308 308 309 307 307 306 308 307 307 307 307 308 305 307 308 311 312 312 312 311 313
302 301 302 302 302 302 303 302 301 299 297 297 297 298 297 296 296 298 302 302 299 298 301 303 304 305 306 307 308 308 307 306 309 312 307 309 309 307 306 306 307 308 310 312 312 312 313
301 301 301 301 301 300 300 300 300 299 298 296 297 297 296 296 297 296 299 298 296 298 302 305 304 304 305 305 306 306 305 306 307 309 309 309 309 311 309 310 311 312 313 313 314 314 315
300 299 299 299 299 298 297 298 299 299 297 295 298 297 296 296 296 296 300 297 297 300 304 303 306 307 306 306 306 305 305 305 306 308 312 311 310 312 314 314 313 315 313 314 314 319 317
298 298 299 299 298 297 296 296 297 299 297 297 298 296 296 296 297 296 296 296 298 302 297 302 309 306 306 307 308 305 305 306 307 314 314 315 317 317 316 315 314 316 314 318 319 319 320
298 297 298 298 297 297 297 298 298 298 298 297 296 296 296 297 297 297 296 296 302 298 296 303 308 308 308 309 308 305 306 306 308 315 316 314 314 315 315 315 315 314 317 318 318 318 322
297 297 297 298 297 296 297 297 297 296 296 295 294 295 296 295 296 295 296 298 298 301 300 305 305 303 304 308 310 306 306 306 309 311 312 313 315 314 315 316 316 316 319 320 323 323 322
297 297 298 297 296 296 297 297 296 296 296 295 295 295 294 294 295 295 297 298 298 299 303 302 301 303 306 307 309 308 305 306 305 308 310 312 308 315 314 314 316 317 318 318 325 326 323
296 296 296 297 296 296 296 297 296 297 297 296 295 294 294 296 295 297 295 296 297 301 300 300 301 308 307 307 306 306 305 305 304 306 309 307 308 312 314 313 315 319 323 318 323 321 325
295 295 296 297 295 295 295 296 296 297 297 295 294 294 295 296 297 297 293 297 298 299 299 301 303 308 308 306 307 305 306 307 306 305 305 307 309 310 313 313 315 318 318 323 322 324 326
295 296 294 294 294 294 295 296 296 296 296 294 294 291 296 296 297 293 289 296 298 298 299 300 301 301 302 304 306 308 310 312 312 309 306 309 309 310 315 317 318 319 321 320 322 325 324
294 296 294 293 294 295 295 296 296 296 295 294 292 287 294 295 293 296 292 298 299 299 299 300 300 300 301 306 305 308 310 312 312 311 312 310 313 314 313 313 315 318 319 318 325 324 323
294 295 294 294 295 295 295 295 296 295 295 294 291 291 294 296 290 294 297 298 298 298 299 300 301 301 301 304 305 307 310 309 308 310 313 310 313 313 314 314 315 319 318 319 319 320 320
292 294 294 295 295 295 295 295 295 295 295 294 292 287 288 294 293 295 293 296 298 298 299 300 300 301 302 303 305 306 307 307 308 310 312 308 310 309 310 310 314 315 314 314 318 322 322
294 294 293 294 294 295 294 294 294 294 294 294 293 291 291 288 296 296 296 297 297 298 298 298 300 301 302 304 306 306 307 307 308 310 311 307 309 313 312 311 312 313 313 313 314 317 322
294 293 293 294 294 294 295 294 295 294 294 294 293 291 292 293 294 294 295 297 297 299 299 298 302 301 300 303 304 306 307 306 308 309 310 308 311 310 309 309 307 306 304 306 309 313 318
293 294 293 293 294 295 295 295 295 295 294 292 294 294 292 293 294 289 288 294 296 296 295 297 299 298 300 301 302 303 305 306 306 307 308 309 309 308 309 306 306 304 308 305 308 310 315
293 294 294 294 294 295 295 295 294 294 294 293 292 292 291 292 294 294 294 294 294 294 295 297 298 299 300 302 303 303 305 306 306 305 305 308 308 307 308 306 304 302 303 306 315 317 315
293 294 294 294 294 295 294 294 294 294 295 294 293 293 289 289 294 293 294 294 294 294 295 297 300 301 299 302 306 305 304 304 303 304 304 305 306 306 305 307 304 304 311 313 312 312 316
293 294 294 294 295 294 294 294 293 294 294 295 294 293 293 292 293 294 293 293 294 294 297 298 299 297 300 301 304 305 305 304 304 305 303 304 304 304 306 307 304 303 305 306 309 314 318
293 294 294 295 294 294 294 294 294 294 294 295 295 293 293 295 292 295 294 294 296 297 297 299 297 299 301 303 306 306 304 303 303 306 307 305 305 307 306 305 305 305 309 310 312 312 313
294 293 293 293 293 293 294 294 294 294 294 295 296 295 293 294 293 294 294 294 295 295 296 296 297 298 299 303 304 304 304 303 305 304 306 306 307 305 306 307 306 308 311 313 311 309 305
293 293 293 293 294 294 294 294 294 294 294 295 295 295 294 292 293 293 294 294 294 295 295 296 297 298 301 301 302 304 303 300 303 305 305 303 305 306 306 305 306 303 304 305 307 307 303

GFSGBSN_925_thetae_081.txt.gz
Theta_e
307 306 304 304 303 303 305 305 303 302 302 302 304 304 304 303 303 303 302 300 298 300 302 303 304 305 304 304 303 300 305 303 305 311 310 317 314 310 311 308 307 311 311 311 312 313 314
306 304 304 303 305 304 304 303 302 302 302 303 303 303 303 303 302 302 301 299 296 300 302 303 305 305 305 305 302 301 301 303 304 312 313 316 316 313 313 311 310 310 309 310 310 312 313
306 304 304 303 303 303 302 302 302 302 302 303 304 303 302 302 299 298 297 296 299 302 305 305 306 305 305 306 303 302 303 302 302 305 312 313 313 311 309 307 308 309 310 311 313 313 314
306 304 304 303 302 302 302 303 303 303 302 303 302 302 302 300 298 296 296 297 302 305 307 308 307 305 307 305 305 306 305 305 306 307 305 306 306 307 306 307 308 309 310 311 314 313 314
304 304 303 302 302 301 300 301 303 302 300 300 301 301 301 298 297 296 296 302 304 307 307 306 305 306 307 305 308 310 309 308 306 307 306 306 305 306 306 307 308 309 309 314 314 315 315
303 302 303 303 302 301 302 303 302 299 298 297 298 300 300 298 296 296 301 305 307 308 308 308 306 307 307 307 310 309 308 307 307 306 307 306 307 307 306 308 308 309 312 314 314 314 313
304 303 303 303 303 301 301 303 301 299 297 297 296 299 299 297 295 297 302 302 300 302 299 302 305 308 305 305 306 308 307 306 307 307 309 307 308 309 308 307 307 308 309 310 311 311 312
304 303 302 302 302 302 302 302 302 300 298 297 296 297 299 296 296 297 300 299 297 296 300 301 301 302 303 304 305 306 307 308 310 312 308 310 310 309 308 307 308 309 309 310 311 312 313
301 301 301 301 301 300 301 300 300 299 298 297 296 298 296 295 296 296 298 297 296 296 302 303 304 305 304 305 306 305 305 306 307 312 310 312 311 310 309 309 310 311 312 313 314 313 314
300 299 299 300 300 298 297 297 298 299 298 296 296 297 296 295 296 296 298 296 296 298 303 300 306 307 306 306 306 305 305 306 307 308 311 312 310 311 312 314 313 316 314 314 315 317 319
299 298 299 299 298 297 296 296 297 298 297 297 297 295 296 296 296 296 296 295 297 300 295 299 309 306 306 306 307 305 305 305 307 310 312 311 316 316 313 313 314 316 315 316 317 318 319
298 298 298 299 297 297 297 298 298 297 296 295 295 294 296 296 295 296 295 296 300 297 294 300 305 302 303 307 308 305 306 305 308 312 315 311 314 316 316 315 315 315 316 317 318 318 321
297 296 297 298 297 296 297 297 296 295 295 295 295 295 295 295 295 294 295 298 294 294 300 303 302 300 301 306 307 307 307 307 310 314 314 313 316 315 315 316 316 317 318 319 320 322 320
296 297 298 297 296 296 296 297 296 296 295 295 295 294 294 295 295 295 297 297 292 299 301 301 299 301 307 306 306 305 306 308 306 308 311 312 309 315 315 315 314 318 318 319 321 323 323
296 296 296 297 296 295 295 296 296 296 294 293 293 293 295 296 296 297 297 295 297 300 299 299 298 307 307 304 305 306 306 306 306 308 310 310 308 313 315 314 315 318 319 318 320 320 323
296 296 296 296 295 295 295 295 296 296 294 293 293 293 295 296 297 295 295 297 297 298 299 300 300 302 300 299 301 305 307 309 312 306 307 308 310 311 314 315 316 319 318 324 322 322 324
296 296 295 294 294 293 294 295 296 295 294 293 293 292 295 296 297 294 294 295 297 298 299 299 300 298 297 300 304 306 308 311 310 312 308 308 310 313 315 316 317 319 322 320 321 323 322
294 296 295 293 293 295 295 295 295 295 294 293 291 291 294 295 296 294 297 297 298 298 299 299 300 300 301 303 306 306 307 307 307 307 313 311 312 313 316 314 315 317 318 318 321 322 323
294 295 294 292 294 294 294 294 295 294 294 293 292 292 294 295 295 296 296 297 298 297 298 300 299 300 300 301 302 304 307 307 305 309 312 312 315 316 315 317 317 318 317 319 319 318 319
293 294 293 293 294 294 294 295 294 294 294 293 291 290 291 295 294 297 295 296 298 297 297 298 300 300 300 302 303 304 306 306 305 305 310 310 312 311 313 313 313 315 313 313 316 317 321
293 294 294 292 294 293 293 294 294 294 294 294 293 291 292 293 296 295 296 296 296 297 298 298 300 301 299 301 302 304 305 306 305 305 310 309 312 312 311 311 312 313 310 309 310 312 314
293 294 293 293 293 293 295 293 294 294 294 293 293 292 292 294 294 294 294 295 295 297 297 296 297 299 297 297 298 300 302 303 308 307 308 310 312 311 310 309 306 305 304 304 306 309 310
293 293 293 293 293 293 294 294 294 294 293 292 292 293 293 293 294 292 292 293 294 294 294 295 296 297 297 298 301 302 303 303 305 307 308 309 311 309 307 307 305 304 305 304 307 313 314
293 293 295 293 294 295 295 294 294 295 293 292 292 292 292 292 294 294 294 294 294 294 294 295 296 297 298 299 299 301 303 304 304 306 307 308 309 308 307 306 302 303 304 306 307 312 309
292 293 294 294 294 294 294 295 294 294 294 293 292 292 291 291 293 293 293 294 294 294 294 294 296 299 299 298 302 303 306 305 306 307 306 306 308 308 307 307 304 306 307 306 306 305 317
293 293 294 294 294 295 294 294 295 294 294 294 293 293 292 293 293 293 293 294 294 295 296 297 298 297 297 301 305 305 304 304 305 306 304 305 305 307 307 305 303 303 308 310 310 310 311
292 293 294 294 294 294 294 293 293 293 294 294 295 293 292 294 293 294 294 295 295 296 296 296 296 296 298 302 306 306 305 304 303 305 307 307 308 308 308 307 306 309 310 311 305 312 309
292 293 293 294 293 293 293 292 293 294 294 295 295 295 293 295 294 294 294 294 295 295 295 296 296 297 298 301 305 306 305 305 306 305 307 307 308 308 307 308 307 306 309 311 309 308 303
293 293 293 292 292 292 292 293 293 294 294 294 295 295 294 292 295 292 293 294 294 295 296 295 296 296 298 302 301 303 306 305 305 306 305 308 307 309 307 307 306 302 303 300 304 305 302

GFSGBSN_925_thetae_084.txt.gz
Theta_e
307 307 306 305 304 305 304 304 303 302 302 302 303 303 303 304 303 303 302 299 298 301 301 303 304 305 306 307 305 302 306 304 311 312 312 311 311 310 311 311 311 312 313 313 313 313 314
307 307 305 304 305 304 304 304 302 302 302 303 304 304 302 302 301 301 300 297 296 299 302 303 305 306 307 308 304 302 303 305 308 312 312 314 314 314 314 314 314 314 314 314 314 314 315
307 306 305 304 304 304 303 303 302 303 303 303 303 303 301 300 299 298 297 296 299 302 304 307 308 306 308 307 305 305 306 304 305 309 311 312 314 313 312 313 312 312 312 312 312 313 314
307 306 305 304 303 303 303 303 303 303 302 301 301 301 300 298 297 297 295 299 303 305 307 307 307 307 310 307 307 308 308 307 305 305 306 308 311 312 311 310 309 310 311 312 312 315 316
305 304 304 303 302 302 300 301 302 301 299 298 298 299 299 298 296 295 298 302 306 307 308 307 308 309 309 306 309 311 310 310 309 309 307 307 308 309 309 309 309 310 309 310 313 315 315
304 305 304 303 302 301 301 302 302 299 298 298 296 296 298 296 296 296 301 306 308 308 307 309 308 309 310 310 311 310 311 310 310 310 308 308 309 310 310 310 309 310 310 312 313 313 313
304 304 304 304 302 302 302 303 302 300 298 298 297 296 297 296 296 299 302 303 304 306 302 304 304 306 304 305 306 307 308 309 309 310 307 308 309 310 309 309 309 309 309 308 310 311 312
304 304 304 303 303 303 302 302 302 301 299 298 297 296 296 295 296 300 301 302 299 299 304 302 303 303 304 304 305 305 307 309 311 312 310 311 309 309 308 308 309 309 310 311 311 312 314
304 303 302 302 302 301 301 300 300 299 298 297 296 297 295 295 296 299 300 298 297 299 305 304 305 307 307 306 308 308 307 309 311 312 313 313 312 312 311 311 311 311 311 311 314 316 316
301 300 300 302 301 299 298 297 297 298 297 296 296 296 295 295 297 298 301 297 298 299 306 301 310 308 307 308 310 308 307 307 310 310 311 313 312 312 311 311 311 311 313 315 316 318 319
299 299 300 300 299 297 296 296 296 296 297 297 296 294 295 295 297 298 297 297 299 303 300 304 309 307 304 308 309 309 306 306 307 310 310 311 311 312 312 311 313 315 315 316 317 318 319
298 298 299 299 297 297 296 298 297 296 295 295 295 294 295 297 298 297 297 298 303 305 299 302 306 302 304 307 309 308 307 307 307 308 310 310 313 316 315 315 312 315 316 316 317 319 323
298 298 298 299 298 296 298 297 295 294 296 296 295 295 296 297 298 297 298 303 301 298 300 303 302 300 303 308 308 309 310 310 312 310 310 310 311 312 316 316 317 316 316 315 322 324 320
297 296 298 298 297 297 296 295 294 295 295 294 294 294 296 296 297 297 301 300 297 299 301 300 300 299 303 306 305 310 310 312 311 311 312 313 313 314 315 315 314 316 314 316 318 320 320
297 298 298 297 297 296 295 295 294 294 294 293 293 296 298 297 298 299 301 298 298 300 299 300 298 299 301 303 299 306 310 310 310 310 312 313 311 313 316 315 314 317 320 317 321 320 322
297 296 297 297 296 294 294 295 295 294 294 293 295 297 298 297 297 298 299 298 299 299 299 298 297 299 299 299 298 300 305 313 312 311 311 312 312 313 316 316 316 318 317 322 322 323 322
296 296 296 297 295 293 295 295 294 293 293 293 295 299 297 296 299 299 300 297 297 298 299 299 299 299 298 299 301 302 303 310 308 309 309 312 312 315 316 317 317 320 320 321 322 323 324
296 297 295 294 293 295 295 295 294 294 294 294 296 300 296 298 300 299 299 299 299 299 298 300 301 301 301 301 302 303 305 306 307 307 311 313 313 313 315 315 315 316 318 319 322 323 323
294 296 295 293 294 295 295 294 294 294 294 295 297 297 296 298 301 299 298 298 298 298 298 299 299 300 300 301 301 301 303 305 306 306 308 307 314 314 315 316 316 318 319 320 319 319 321
294 296 294 293 294 294 295 294 293 293 294 295 297 299 298 298 298 299 298 298 298 297 298 299 300 300 301 302 302 303 302 303 305 307 305 305 314 314 314 314 317 318 316 317 318 321 321
293 293 293 293 294 293 293 293 294 293 294 296 297 297 297 299 298 297 297 296 297 297 298 299 299 301 300 300 300 302 303 303 303 306 303 309 316 314 311 310 311 312 312 311 313 314 314
292 294 294 292 294 293 293 294 294 293 293 296 297 297 296 297 297 296 295 295 295 296 297 297 297 298 299 298 299 300 302 303 304 307 306 306 315 313 312 310 307 306 306 305 306 307 309
293 293 293 292 294 292 294 294 293 293 293 295 294 295 297 295 296 296 296 295 295 295 296 296 296 297 298 298 300 301 301 301 301 304 308 311 310 310 311 307 305 306 306 308 310 312 314
293 293 294 292 294 293 294 294 295 293 293 294 295 295 296 296 296 295 295 295 296 295 296 296 296 297 298 299 301 301 302 302 303 304 305 310 311 307 307 306 305 306 309 307 307 312 314
293 293 294 294 293 294 295 295 294 294 293 294 294 295 296 296 295 295 295 296 296 296 296 297 298 299 299 299 300 303 304 305 305 306 307 308 310 308 307 306 305 306 308 309 309 311 313
292 293 293 294 294 294 294 294 294 294 294 295 295 294 295 297 297 295 296 296 297 298 297 297 297 298 299 301 302 304 303 302 305 307 306 307 309 310 308 305 303 310 308 310 311 312 311
292 293 293 294 294 294 294 293 294 294 294 296 295 294 295 296 296 296 296 297 296 297 297 297 298 298 299 301 306 307 306 303 304 305 309 309 308 309 308 307 307 309 309 309 311 312 310
292 293 293 294 294 293 293 293 293 293 294 295 295 294 294 296 296 296 296 297 297 296 298 298 298 299 299 303 305 306 306 305 305 306 307 307 308 309 307 308 308 307 309 310 308 308 305
292 293 293 293 294 292 293 293 292 293 293 294 295 294 294 294 296 295 295 295 296 296 296 297 297 297 299 302 302 305 307 307 307 305 307 309 309 311 308 312 306 303 304 302 301 303 301

GFSGBSN_925_thetae_087.txt.gz
Theta_e
311 310 308 308 307 307 306 306 306 303 302 302 303 304 304 304 304 304 302 299 298 297 297 300 303 306 307 310 310 306 307 306 309 313 315 313 312 312 314 314 314 315 315 316 316 315 315
309 308 308 307 305 307 306 306 305 303 302 303 303 303 302 302 302 301 299 297 296 297 300 302 305 307 309 310 307 305 304 307 309 313 313 314 313 313 313 314 313 314 315 315 316 315 315
308 306 307 306 305 306 306 306 303 303 303 303 303 302 301 300 300 299 297 295 298 301 303 305 307 308 310 310 308 306 306 306 306 310 313 313 314 316 315 314 314 314 315 314 314 314 314
307 306 306 305 303 306 304 303 304 303 303 301 300 299 298 298 297 296 295 297 301 304 307 307 307 310 310 308 307 307 308 308 307 306 308 311 312 314 314 313 312 311 311 312 313 314 315
307 306 305 304 303 303 303 302 303 302 300 298 298 296 296 296 296 295 298 301 304 307 307 307 311 311 312 308 310 312 311 311 309 306 306 307 309 311 312 312 312 311 311 312 312 313 315
307 306 305 304 303 302 301 301 302 300 298 298 297 297 296 297 296 296 301 303 307 308 309 310 310 313 313 311 310 311 311 311 311 311 310 309 309 309 310 311 311 310 311 312 312 313 314
306 305 304 304 303 303 303 303 303 300 299 298 297 296 296 296 295 300 303 305 310 313 307 307 307 308 305 306 306 306 309 311 311 312 313 310 309 311 310 312 312 311 311 311 311 311 311
305 305 304 304 304 303 303 303 303 301 299 298 297 296 296 295 295 302 303 305 303 303 306 305 306 307 307 308 309 309 307 309 311 312 313 311 312 312 311 311 310 311 312 311 311 312 313
304 303 303 303 304 304 303 301 302 301 299 298 297 296 295 295 296 302 302 302 301 302 308 306 309 309 309 309 311 311 309 309 310 311 312 314 313 313 311 310 311 311 311 312 312 312 315
303 303 303 304 303 303 302 300 299 298 297 296 295 296 294 295 299 300 304 299 301 303 314 306 311 310 307 309 313 310 310 310 310 311 312 313 314 313 313 312 312 313 312 312 312 316 317
304 302 303 303 302 300 298 297 296 296 296 297 296 295 294 295 300 302 300 300 302 305 310 306 311 309 306 309 310 312 309 309 310 311 311 312 313 313 314 313 312 312 313 316 316 318 318
300 300 301 301 299 298 297 296 297 296 295 295 294 294 295 301 301 300 299 301 305 315 306 306 307 304 304 307 309 310 310 310 310 308 310 311 312 313 313 313 312 313 315 316 316 317 320
299 299 299 299 299 298 297 297 296 295 295 295 295 294 297 299 303 299 301 306 311 305 302 305 305 303 302 306 307 308 308 311 312 313 312 311 311 311 312 315 316 313 316 318 319 322 320
298 298 299 299 298 298 297 295 294 295 295 294 293 295 297 299 300 301 304 307 303 302 303 303 302 301 300 304 305 304 306 308 309 311 312 313 313 312 311 314 316 316 317 317 315 317 321
298 298 299 298 298 297 296 295 294 294 294 293 294 299 301 300 301 302 306 305 304 303 302 301 300 300 302 304 301 301 304 307 311 314 317 316 314 313 314 314 315 314 316 315 315 316 319
297 297 299 298 297 296 294 295 295 295 294 293 299 300 300 300 301 303 304 303 301 301 300 300 299 300 302 301 300 301 301 310 313 312 311 315 316 314 314 316 315 315 315 320 320 320 320
297 297 298 298 296 294 294 294 294 294 294 293 298 303 300 299 302 303 307 301 300 299 300 300 300 300 301 301 302 302 303 308 310 310 308 312 315 314 315 317 316 316 320 319 320 320 322
297 295 297 297 295 294 295 293 293 294 294 296 299 304 299 300 304 302 303 301 298 300 300 300 301 301 302 302 302 302 303 304 307 307 306 308 314 316 315 315 315 317 317 318 321 319 320
296 297 296 294 294 296 295 294 294 294 295 298 300 300 298 301 306 303 301 300 300 299 299 300 300 300 301 301 302 302 302 303 305 306 308 306 312 316 314 317 315 316 318 318 320 321 323
294 297 295 294 295 295 294 293 292 294 294 298 301 303 302 301 300 302 300 299 300 299 299 299 300 300 301 302 302 304 304 304 305 304 306 306 309 311 316 315 317 316 316 318 320 323 320
294 296 295 293 295 294 295 293 293 293 294 298 301 302 301 302 300 300 299 298 298 298 298 299 300 302 302 301 301 301 302 302 302 306 307 308 308 309 314 315 316 317 317 317 318 318 318
293 293 293 293 294 292 293 293 294 292 293 299 301 300 299 300 298 299 296 298 297 297 298 299 299 299 299 299 300 301 301 302 303 305 304 305 310 307 317 311 311 311 311 310 309 308 308
294 294 293 292 293 293 294 292 293 293 294 298 297 299 301 298 299 300 299 297 297 297 297 297 298 298 298 299 300 301 302 302 303 303 305 305 308 314 316 312 309 309 308 308 309 312 315
295 294 294 293 294 293 294 293 293 292 294 297 297 297 300 300 299 298 297 297 298 298 298 297 298 298 299 300 300 301 302 302 303 303 303 305 307 311 312 308 310 310 309 308 308 314 313
294 294 294 294 294 294 293 294 294 293 292 296 295 298 299 300 298 298 298 298 298 299 299 299 298 299 300 300 301 301 303 305 305 304 305 305 309 314 311 312 306 308 309 310 311 315 313
294 293 294 294 294 293 293 294 294 294 292 297 296 296 298 302 299 298 299 298 299 299 300 299 298 299 300 301 301 303 304 304 305 305 305 308 309 312 308 306 307 312 310 309 310 314 311
294 293 292 294 294 293 294 294 294 293 294 296 298 297 297 299 299 299 298 299 298 299 300 299 299 299 301 303 305 307 306 305 305 305 308 308 308 309 309 307 309 310 310 310 311 315 309
293 293 293 293 294 293 293 293 293 294 294 296 297 297 297 298 299 298 298 298 298 299 299 299 300 300 301 304 307 306 311 307 305 306 307 307 308 309 308 308 310 308 310 313 307 307 304
292 293 293 292 293 294 293 293 294 293 293 294 297 296 295 296 298 297 297 297 297 297 299 298 299 299 301 301 301 303 308 309 307 307 308 310 310 313 314 313 307 304 304 302 301 300 300

GFSGBSN_925_thetae_090.txt.gz
Theta_e
313 313 313 310 309 309 308 307 307 307 305 304 304 303 305 305 305 305 304 300 299 298 297 299 303 306 308 311 313 310 305 306 309 310 315 314 313 312 313 313 315 316 317 317 318 317 318
314 312 311 310 308 308 308 307 307 306 304 303 304 304 304 303 303 303 300 298 297 296 299 301 303 306 309 309 309 308 306 307 309 312 313 314 313 313 312 313 313 314 313 314 314 315 314
314 312 311 309 307 307 307 306 306 306 304 305 304 304 302 301 300 299 297 296 295 299 301 303 306 309 310 309 308 309 307 306 306 308 312 313 313 314 315 315 315 315 314 315 315 315 315
314 312 310 308 305 305 305 306 306 304 305 303 302 300 299 296 297 296 296 296 299 301 305 307 307 311 309 309 309 308 308 308 308 307 307 310 312 313 315 316 315 313 313 312 312 312 313
314 312 309 307 305 303 306 305 303 304 305 303 299 298 297 297 297 295 295 299 302 305 307 306 311 312 310 310 309 311 312 312 312 309 307 307 308 311 313 313 313 312 312 312 311 312 313
313 310 308 307 305 304 303 303 303 303 302 300 299 297 297 297 295 295 299 302 304 307 309 311 311 313 313 312 311 311 312 312 312 311 308 308 308 308 309 310 314 313 312 312 312 312 313
312 310 308 307 306 305 304 303 302 302 300 299 299 297 296 296 295 298 302 307 310 314 313 313 312 312 310 306 308 308 307 310 312 312 313 311 310 309 310 311 311 312 312 313 313 313 312
311 309 308 307 306 305 304 304 304 302 300 301 299 297 296 295 295 302 303 307 304 303 305 307 306 307 308 310 311 312 308 308 310 312 313 314 312 311 311 312 312 312 312 311 311 312 313
310 309 307 306 305 304 304 304 303 302 302 300 298 296 295 294 296 302 303 303 302 303 307 308 309 311 310 310 313 312 310 308 308 310 312 313 314 313 313 312 312 311 311 310 310 311 312
308 306 306 304 303 304 304 303 303 302 301 298 296 295 295 295 300 302 306 301 302 304 312 309 309 310 310 309 313 312 311 311 311 311 311 311 312 313 313 314 313 313 313 312 312 312 312
306 305 304 303 303 304 303 301 301 300 299 296 296 296 294 295 302 304 302 301 303 308 313 308 311 309 307 308 309 311 311 311 311 311 312 312 312 312 313 314 314 313 313 312 313 315 317
303 302 303 304 302 300 299 298 298 298 297 295 295 294 295 302 303 302 301 302 306 317 311 306 308 307 304 306 308 310 311 311 311 310 310 310 311 312 313 313 313 313 312 313 314 316 320
302 301 301 300 299 298 297 299 298 296 295 295 295 294 296 299 305 302 303 306 315 312 304 306 306 305 303 303 304 307 307 310 311 313 314 312 311 311 312 313 313 315 315 315 316 320 320
300 300 299 298 298 297 298 296 296 295 295 295 294 294 300 301 302 303 305 310 309 304 304 305 303 303 302 302 303 306 304 304 306 313 313 312 313 313 312 312 313 314 315 315 319 319 318
298 298 298 298 298 296 296 297 296 295 294 293 293 299 303 303 303 303 308 310 307 305 303 302 301 301 302 303 304 303 303 302 309 313 316 317 315 315 314 313 311 313 320 315 319 319 320
298 298 298 297 296 295 296 297 296 295 293 293 299 302 303 301 302 305 308 307 303 303 301 301 301 301 302 303 302 302 303 306 311 311 310 312 315 311 312 315 313 314 315 320 320 323 318
298 298 298 298 296 296 296 296 295 294 293 293 299 304 302 300 304 307 310 305 302 301 300 301 301 302 302 302 302 303 303 304 309 308 307 309 313 312 312 319 317 314 317 318 320 320 321
297 299 298 297 296 294 296 294 294 294 294 296 302 308 301 302 309 306 306 303 298 301 301 301 301 302 302 302 302 302 302 303 305 307 307 309 309 311 312 312 317 315 315 317 321 321 319
296 297 298 297 295 294 294 294 294 294 294 299 303 303 299 302 309 305 303 301 300 300 300 301 301 301 301 301 301 302 303 304 306 305 306 307 307 310 312 311 316 319 319 318 318 321 325
296 297 296 294 295 296 294 293 293 294 294 297 304 308 303 303 302 305 303 301 301 300 299 299 300 300 301 302 302 303 304 304 304 304 307 306 306 307 311 311 310 315 319 318 320 325 322
295 297 295 295 295 295 294 294 293 292 294 298 303 306 303 305 303 302 301 300 300 299 299 300 300 301 302 302 302 302 302 302 302 306 306 306 308 307 308 308 309 313 319 317 319 319 323
297 295 294 295 294 295 294 292 293 292 293 300 303 303 300 303 300 301 297 300 299 299 299 299 300 300 300 300 300 300 301 301 302 303 308 304 305 308 307 307 309 315 317 317 317 317 318
296 294 292 294 294 292 292 292 293 293 295 300 298 300 304 300 301 301 302 299 299 298 299 298 298 299 299 299 299 299 300 300 301 303 305 305 304 307 307 307 315 319 313 314 311 315 316
295 295 294 293 294 294 294 292 291 292 293 298 299 299 302 301 301 300 299 299 299 299 299 299 299 299 299 301 300 300 300 300 301 303 303 304 305 307 307 308 319 311 309 310 316 314 313
295 295 295 294 294 295 295 293 293 291 293 298 298 300 302 305 300 299 299 299 300 300 300 300 300 299 300 300 301 301 303 303 304 304 304 304 305 308 313 314 312 311 310 311 313 316 310
295 295 295 294 294 294 293 292 292 292 292 298 298 298 300 304 300 299 299 299 300 300 299 300 300 299 300 301 301 302 302 308 307 304 303 304 306 308 314 312 312 316 310 310 310 318 308
294 294 295 294 294 294 293 293 292 292 294 297 299 298 299 301 301 300 300 300 299 299 300 299 300 300 301 302 304 305 306 305 307 304 306 307 309 312 313 311 315 308 309 309 311 313 305
294 294 294 294 294 294 293 294 294 292 293 297 299 299 299 300 300 300 300 299 298 299 300 300 300 300 301 303 305 305 306 308 307 307 308 309 309 310 311 310 314 306 308 310 305 302 301
292 293 293 293 293 293 293 294 292 292 293 295 298 298 297 298 299 298 298 298 298 299 298 299 300 300 301 301 301 302 305 309 309 310 308 312 311 314 312 310 305 303 302 300 300 300 299

GFSGBSN_925_thetae_093.txt.gz
Theta_e
319 317 315 313 313 313 311 310 308 306 305 304 303 303 304 305 306 304 303 302 300 299 299 297 300 306 306 310 312 308 308 305 307 305 309 310 312 311 308 310 311 313 314 315 314 314 315
321 319 316 314 313 313 310 309 308 306 306 304 303 303 304 304 303 302 301 299 298 297 296 298 302 307 308 310 303 307 307 307 308 311 312 313 314 312 310 310 309 310 311 311 312 311 312
321 320 317 314 314 312 310 308 307 306 306 304 303 304 304 302 300 298 296 296 296 296 298 301 306 308 310 308 304 307 308 306 306 306 306 308 312 311 311 312 313 313 312 311 311 311 311
323 319 317 315 314 311 309 307 306 306 306 304 305 303 302 299 297 296 296 295 295 299 301 306 309 310 311 304 309 309 308 308 308 308 308 307 307 308 311 311 312 312 311 311 311 310 311
323 320 317 314 313 310 308 306 306 306 305 305 304 302 299 298 296 296 295 295 298 302 305 307 308 311 312 310 310 309 308 308 310 310 308 307 306 306 309 310 311 311 311 310 310 310 311
323 321 317 314 312 310 307 305 305 305 304 305 303 299 298 297 297 295 295 299 301 303 307 310 310 312 313 311 308 310 310 311 311 311 308 306 304 304 304 305 309 311 310 308 308 308 309
323 320 316 313 311 308 307 306 305 304 304 302 301 299 298 297 296 295 299 304 307 309 309 313 313 311 311 307 307 309 308 307 309 311 310 307 304 304 304 305 307 308 308 308 309 309 309
321 319 315 312 309 307 306 306 304 303 302 301 301 299 298 296 295 296 299 304 303 302 303 306 312 311 306 306 310 311 310 306 306 311 310 310 309 308 308 308 309 309 309 309 309 310 309
321 318 314 311 308 307 306 305 303 302 302 302 301 299 297 295 295 299 303 302 302 303 304 307 306 307 309 310 311 312 308 306 306 307 308 308 312 312 311 310 311 311 310 309 310 309 308
320 316 312 309 307 305 304 303 302 302 302 302 300 297 295 294 300 303 304 301 302 305 310 311 306 309 309 310 310 311 311 311 310 308 308 309 309 310 311 312 311 312 311 312 312 311 310
316 312 309 307 305 303 302 303 304 302 301 300 296 296 295 294 299 303 301 301 302 307 317 307 309 309 307 308 308 311 311 309 310 310 310 310 310 310 311 311 311 313 313 313 312 310 313
311 309 307 305 303 302 303 302 300 300 298 296 296 295 294 299 300 303 301 301 304 315 315 307 309 309 305 305 306 311 310 309 309 310 309 308 308 308 308 310 311 312 312 312 310 310 314
305 304 303 303 302 300 299 298 297 296 296 295 295 295 294 299 303 302 301 304 313 315 307 306 306 305 304 303 303 302 306 305 310 306 308 311 312 310 308 308 310 312 312 313 314 314 315
303 302 301 300 299 299 298 298 296 296 296 295 294 294 298 300 302 303 305 308 312 307 305 304 302 301 301 302 302 304 302 301 302 312 314 313 312 312 312 309 310 311 312 317 317 315 315
299 298 298 298 298 298 298 296 296 296 296 294 293 296 301 303 301 303 305 310 306 304 302 301 301 301 302 303 303 302 302 302 310 310 313 315 314 311 310 312 312 312 314 315 319 317 317
299 298 299 298 298 296 295 295 295 295 295 293 299 301 303 301 302 304 305 309 303 301 301 301 300 301 302 302 302 302 302 305 310 307 306 308 310 309 310 314 313 314 312 316 318 324 322
298 298 297 297 296 296 295 296 296 295 294 293 297 302 301 300 304 305 305 306 302 301 300 300 301 301 301 302 301 302 302 304 305 305 305 307 309 308 308 312 316 316 316 316 318 318 320
298 298 297 297 296 296 296 296 295 294 294 294 300 304 300 303 306 307 305 303 300 301 300 300 301 302 302 302 302 302 302 306 307 306 305 307 307 308 306 305 306 315 318 317 319 319 321
298 298 297 297 296 296 296 296 294 294 295 298 301 300 299 303 304 304 302 301 300 300 300 300 301 301 301 301 301 302 303 306 305 305 305 306 304 304 301 306 310 314 313 313 314 319 319
297 298 297 296 296 296 296 294 293 294 294 297 301 301 300 301 300 304 301 301 301 300 299 299 299 300 300 303 302 303 303 304 304 306 306 304 305 304 303 304 306 308 310 310 314 320 321
297 297 295 295 296 296 295 292 292 293 294 298 301 302 302 301 301 301 301 300 300 300 299 299 300 302 302 301 301 301 301 301 302 306 305 303 304 305 305 305 306 308 308 310 315 319 320
297 296 295 295 296 296 294 293 293 292 295 299 299 302 298 299 299 300 297 300 299 299 299 298 299 299 298 298 299 299 299 299 300 301 303 303 304 302 304 304 305 307 309 313 314 317 318
297 294 295 295 294 295 293 293 293 293 298 299 298 300 301 299 299 300 299 299 299 299 299 299 299 299 298 298 299 299 298 298 299 299 296 301 301 301 301 305 306 311 315 313 314 316 315
296 295 295 295 294 295 292 291 291 293 295 297 299 299 300 298 299 300 299 300 299 299 298 299 299 299 300 299 298 298 298 298 298 298 299 300 302 304 304 305 312 313 312 314 312 309 310
296 296 295 295 295 294 293 292 291 292 296 298 299 299 299 299 299 299 299 299 299 300 299 300 301 300 298 299 298 299 299 301 301 300 299 300 301 305 308 308 314 313 312 312 313 310 306
295 296 295 294 294 294 292 291 292 292 298 299 298 298 299 298 299 300 299 300 297 297 298 299 300 299 299 294 296 301 301 303 308 305 301 302 303 305 309 311 316 310 306 307 310 311 303
295 295 295 295 294 293 292 291 292 293 296 298 298 298 299 295 299 299 298 298 298 297 295 297 298 298 299 294 295 299 304 303 309 307 305 305 306 307 307 309 311 304 305 306 310 309 300
294 294 294 294 294 293 293 294 293 292 294 298 298 298 298 294 297 300 300 298 297 296 294 296 295 298 297 298 303 299 300 304 309 309 306 306 310 313 311 312 309 301 304 307 304 300 298
294 294 293 294 293 293 293 293 292 291 293 297 298 297 297 294 296 297 297 297 298 298 297 296 297 297 297 296 299 300 302 303 308 311 309 311 310 310 309 307 301 298 299 299 299 299 296

GFSGBSN_925_thetae_096.txt.gz
Theta_e
326 324 323 321 318 315 314 313 312 310 308 306 305 304 304 304 304 304 303 302 300 298 298 297 299 305 305 309 309 302 303 307 305 306 308 309 310 309 307 306 308 310 312 312 312 312 312
325 326 324 323 320 317 315 314 312 311 308 305 305 304 304 304 303 304 302 300 298 297 296 296 302 306 306 304 302 304 307 306 307 308 310 310 313 312 311 310 307 308 309 308 309 310 310
326 325 325 325 323 318 315 314 313 310 308 306 305 304 303 304 303 301 299 298 297 296 296 299 304 307 308 305 302 307 306 307 306 308 309 308 309 309 309 311 311 312 312 310 310 310 309
321 324 324 323 323 318 316 314 312 310 307 306 305 304 304 303 301 299 297 296 296 296 298 302 308 308 308 302 302 306 308 308 307 306 306 307 307 305 308 309 310 311 310 311 311 310 309
319 321 323 323 320 318 315 314 312 309 307 306 305 305 304 301 299 297 296 295 295 297 301 306 309 309 311 310 311 310 309 308 307 308 307 307 306 305 306 308 308 309 311 311 310 309 308
319 321 322 323 322 319 315 314 311 308 306 306 304 304 302 299 298 296 296 296 301 301 304 309 309 311 310 311 308 309 311 309 310 310 307 306 302 303 302 304 309 310 310 308 308 307 308
318 318 320 321 322 318 315 312 310 308 307 305 305 303 300 299 297 296 296 302 307 307 305 311 310 310 311 309 306 307 307 306 306 309 309 306 303 303 302 303 306 307 307 307 306 306 308
317 318 319 321 321 317 313 310 309 307 305 304 304 301 300 299 296 295 296 301 302 302 301 305 311 311 311 311 308 309 310 306 305 304 309 309 305 305 305 305 305 305 306 306 307 307 308
317 317 319 321 319 315 312 309 307 306 304 303 301 300 300 298 295 296 300 302 302 302 301 303 304 307 310 308 309 310 306 306 305 305 308 309 309 310 308 308 309 308 307 308 309 308 307
318 318 318 319 318 313 309 308 307 304 302 301 302 301 299 295 296 301 302 302 301 303 304 308 307 307 308 310 311 310 310 309 307 306 306 306 306 307 308 310 310 310 309 310 310 310 311
319 318 318 318 313 310 308 306 304 303 301 301 301 298 295 295 298 301 301 301 302 306 304 308 307 309 308 309 307 311 310 309 309 309 309 309 308 308 308 308 309 310 310 311 311 310 309
318 318 318 314 309 307 305 303 303 303 302 301 298 295 295 294 297 302 301 300 304 311 304 310 310 309 306 306 305 310 310 308 308 308 308 307 307 307 307 307 308 309 311 310 310 309 312
315 316 311 308 306 304 304 303 302 300 298 296 295 295 295 298 302 303 301 303 312 314 308 305 306 305 303 302 302 302 306 307 307 305 304 307 306 307 309 309 308 309 311 313 313 311 313
301 303 304 303 302 301 300 298 297 297 296 295 294 294 294 295 302 303 304 306 313 306 304 302 301 300 301 301 301 302 301 300 307 310 312 313 313 309 308 310 310 308 311 314 319 316 314
301 301 300 301 300 299 298 298 297 297 295 294 294 294 296 300 302 303 304 310 305 304 302 301 301 300 302 302 302 302 301 308 309 306 310 312 312 306 308 307 311 312 311 311 314 314 318
298 298 297 298 298 298 297 297 296 295 295 295 296 299 302 303 302 303 305 309 301 301 300 301 300 302 302 301 302 301 302 307 307 305 305 308 308 307 307 304 307 313 312 314 313 318 317
299 299 298 297 297 296 296 295 295 294 293 294 296 301 301 301 302 303 303 303 301 300 300 301 301 301 301 301 301 301 302 304 305 305 305 305 307 306 305 305 307 304 312 316 317 316 317
298 298 297 297 296 295 297 296 295 295 295 295 298 302 300 301 305 304 304 303 300 300 300 301 301 301 302 301 301 300 301 306 305 305 304 306 305 307 304 303 302 303 306 316 319 319 317
298 298 297 297 295 296 296 296 296 294 295 298 300 299 299 302 303 301 302 300 300 301 300 300 301 301 300 299 300 301 303 306 304 303 304 305 302 303 301 300 305 306 306 310 312 314 317
299 298 297 297 297 296 296 296 295 295 295 297 300 300 298 299 300 301 301 301 301 299 299 299 299 299 299 302 301 302 301 304 302 306 306 303 304 303 302 301 304 305 306 307 310 312 315
298 298 297 297 297 296 295 294 294 293 295 298 299 300 300 299 299 300 300 300 301 300 299 299 299 299 299 300 299 299 299 299 299 306 304 301 303 303 304 303 302 302 303 303 306 309 316
297 296 296 296 296 296 293 293 293 293 296 298 297 297 298 297 299 297 299 299 300 299 298 298 297 298 297 297 298 298 299 298 298 299 302 302 299 302 301 301 301 304 304 306 306 314 315
297 296 296 296 297 295 294 293 293 296 298 297 298 298 297 298 298 299 298 300 299 298 298 298 298 297 297 298 298 297 297 297 298 298 296 300 298 300 299 301 303 302 304 305 313 311 315
295 295 295 295 296 294 293 292 294 296 298 298 299 297 296 296 298 299 300 299 299 299 298 298 298 298 298 298 297 297 296 297 297 297 297 298 296 298 301 303 305 311 312 310 309 308 307
295 296 296 296 296 293 293 292 293 298 298 298 298 297 297 297 298 299 299 299 298 297 298 300 300 299 297 298 297 299 298 300 301 298 297 298 298 300 303 305 305 307 309 309 311 306 303
296 295 295 295 294 293 292 292 293 298 297 298 298 298 297 296 298 300 298 297 296 296 295 298 298 297 297 292 294 300 300 301 304 306 299 298 299 301 305 307 310 307 302 302 307 307 299
295 295 295 295 294 292 292 292 293 296 298 297 297 298 297 294 297 297 296 296 295 294 293 294 296 296 296 289 295 299 302 302 305 308 304 302 302 303 304 307 309 302 301 303 309 305 297
295 295 294 294 293 292 293 293 293 295 297 297 297 297 296 290 295 298 298 297 295 294 292 294 293 293 294 295 297 297 294 303 303 310 308 306 307 308 306 308 308 299 301 305 303 297 295
294 294 294 294 292 293 294 293 291 295 297 297 297 296 296 292 295 296 296 297 297 297 294 294 295 295 296 294 298 299 301 301 305 306 305 306 305 305 305 302 299 298 298 298 297 296 295

GFSGBSN_925_thetae_099.txt.gz
Theta_e
325 326 327 326 326 324 322 320 317 315 313 312 309 307 306 305 304 303 304 304 303 300 298 300 303 305 305 306 306 302 304 303 305 306 307 307 305 304 305 304 305 307 308 309 310 310 310
315 321 324 325 325 325 324 322 319 316 314 313 310 307 306 305 304 304 303 303 300 297 296 297 304 305 305 300 301 302 304 307 306 306 308 307 309 310 310 311 308 307 308 307 306 307 307
314 316 320 322 324 323 324 323 321 318 315 313 310 307 306 304 304 304 303 300 297 297 296 296 304 306 306 304 301 306 309 307 307 308 308 310 311 309 306 307 309 310 310 309 309 309 308
309 315 316 321 321 321 322 322 321 317 315 313 311 307 305 304 303 303 301 298 296 296 296 300 306 308 307 301 303 306 304 304 305 307 307 306 305 304 305 307 308 310 309 311 310 309 309
308 309 315 316 320 320 322 321 321 316 315 313 311 306 305 304 304 302 298 296 295 296 298 304 308 307 307 305 311 310 310 307 307 307 305 305 305 303 305 306 307 308 310 310 310 309 308
308 311 313 316 318 320 321 320 319 317 315 312 310 306 305 304 303 299 297 295 299 301 303 307 308 307 306 310 309 307 308 308 307 309 306 305 302 302 301 304 308 308 309 308 308 307 306
312 314 313 316 316 317 319 319 318 318 314 311 308 306 304 304 300 298 297 301 305 306 304 308 308 307 307 310 307 306 306 308 306 307 308 305 303 302 301 302 305 307 306 305 304 304 305
316 315 314 316 316 317 320 320 318 315 312 309 307 305 304 302 299 298 296 300 303 302 302 305 309 307 307 308 312 306 308 305 304 304 307 308 304 304 303 303 303 303 304 304 304 305 305
316 315 315 316 316 317 320 320 317 314 310 309 306 305 303 300 299 296 296 302 302 302 298 300 304 309 310 311 312 307 306 305 304 303 303 307 309 309 306 306 307 306 305 306 307 307 306
317 315 315 316 315 318 319 319 316 311 309 307 305 304 300 299 295 298 300 302 302 301 297 301 305 304 308 307 307 308 307 305 304 304 304 305 305 306 305 307 308 309 309 309 309 308 309
311 317 316 317 317 318 319 317 311 309 307 305 303 301 300 296 299 300 301 301 304 305 300 305 305 306 307 308 307 308 309 308 308 308 306 307 308 307 307 307 307 308 308 309 309 309 309
312 316 317 317 318 318 318 312 309 307 305 302 301 301 299 296 295 302 301 301 304 310 307 308 308 308 308 308 306 309 309 308 308 308 307 307 307 307 307 308 306 307 307 309 307 308 311
311 317 317 318 318 315 311 308 306 303 302 301 300 298 296 297 300 302 301 303 311 312 306 308 309 309 304 303 302 304 304 306 307 303 305 309 306 306 308 309 308 307 308 309 311 311 312
301 305 309 311 309 307 305 304 303 301 300 299 296 296 296 299 300 302 303 306 313 307 303 302 301 302 301 301 301 301 300 305 306 309 310 311 308 307 306 310 310 309 307 309 315 316 312
304 302 300 300 300 300 299 299 298 297 296 296 294 294 295 300 301 302 304 310 309 303 302 301 301 300 302 302 301 302 304 309 306 305 308 310 311 305 305 305 303 309 312 311 313 312 314
302 302 302 302 301 300 299 298 297 296 296 294 295 297 299 301 301 302 306 310 301 301 301 301 301 302 302 301 301 301 304 304 305 303 304 307 305 306 305 302 304 308 308 312 314 317 316
299 299 299 298 298 298 298 298 297 296 294 296 299 302 301 302 302 304 305 304 300 300 300 301 301 300 301 300 300 301 302 304 304 304 304 304 305 305 302 303 303 301 302 309 313 314 320
299 299 298 298 297 297 297 297 297 295 294 298 298 302 301 301 305 304 304 303 301 300 300 301 301 301 300 300 300 300 302 304 304 303 304 305 303 305 303 301 301 301 308 311 303 309 311
298 298 297 296 296 297 297 296 296 296 296 296 300 298 299 301 305 302 300 300 301 300 300 299 300 300 299 299 299 301 303 305 302 303 302 303 301 303 300 299 301 303 303 306 308 310 311
298 297 297 296 296 296 296 296 296 296 296 298 299 298 297 299 300 301 301 301 300 299 299 298 299 299 299 301 300 301 300 302 301 304 306 302 302 302 301 301 303 303 302 302 304 304 307
298 297 297 296 296 296 296 296 296 295 295 298 299 300 300 301 299 300 300 301 300 299 299 298 298 298 298 300 298 298 297 298 298 303 303 300 302 303 303 303 303 302 301 301 303 303 304
297 297 297 297 296 296 296 295 293 294 296 298 299 298 296 297 299 298 299 299 299 298 297 297 297 298 296 297 297 297 298 297 298 301 301 300 297 301 303 300 299 301 300 301 303 305 305
296 297 297 297 296 296 295 293 295 297 298 296 297 297 296 297 298 298 297 299 299 298 298 298 297 297 297 297 297 296 296 297 297 297 297 299 299 298 298 299 300 300 302 303 303 309 310
296 297 297 297 295 295 293 293 297 298 298 298 298 296 296 297 297 298 299 299 299 298 298 299 298 297 298 296 296 296 295 296 296 296 296 297 295 296 298 299 299 304 305 306 306 306 308
296 297 296 296 295 293 292 294 298 298 299 299 298 297 296 296 298 299 299 298 297 297 298 298 298 298 295 297 297 298 298 299 299 296 296 297 297 293 296 301 302 303 306 306 307 303 301
296 297 296 296 293 293 292 296 298 297 298 298 298 298 296 297 298 299 297 296 295 295 294 297 296 296 294 291 294 299 299 300 297 304 298 297 297 294 299 303 307 304 301 303 305 304 298
294 295 295 295 293 292 292 295 297 297 297 298 297 298 296 295 297 297 296 296 294 293 292 294 295 295 294 288 292 296 300 301 305 306 301 299 299 300 300 302 305 300 300 301 310 304 295
295 294 295 293 292 292 292 294 297 297 296 297 296 297 297 293 296 297 297 295 294 293 291 293 292 292 292 292 298 296 299 302 303 304 307 306 305 303 302 304 306 298 300 305 300 296 293
294 293 294 293 293 294 292 293 297 297 296 295 296 295 296 293 294 295 296 297 296 294 293 293 291 295 296 294 297 299 300 301 302 305 302 303 302 304 302 300 298 296 296 297 296 295 294

GFSGBSN_925_thetae_102.txt.gz
Theta_e
312 310 313 322 325 325 325 325 324 324 322 318 316 314 311 308 307 306 305 304 304 303 300 298 301 304 300 301 302 301 304 305 305 309 306 304 303 302 302 303 304 306 308 307 308 308 308
311 312 313 312 316 321 324 324 325 324 324 322 319 315 312 309 307 305 304 304 304 301 298 298 301 304 305 297 301 300 304 305 306 306 306 306 306 304 309 310 307 308 306 307 306 306 306
310 309 308 308 310 313 319 321 322 322 323 323 319 315 313 310 306 305 303 303 302 299 297 297 303 305 305 299 301 304 303 309 306 306 307 308 309 307 305 305 307 308 310 308 308 308 308
308 308 308 307 307 308 313 318 321 320 321 321 320 316 313 310 306 305 304 303 300 297 296 298 306 306 305 301 301 302 301 302 306 305 304 307 306 304 304 304 306 309 308 310 309 308 309
306 306 307 307 308 310 312 315 317 320 319 319 317 315 313 311 306 304 304 301 298 296 297 301 307 306 305 302 305 305 307 307 302 303 306 305 304 303 303 304 303 306 308 309 309 308 308
308 309 310 309 312 313 314 314 319 319 317 319 317 314 312 310 305 304 302 299 296 301 303 305 307 303 303 304 309 308 308 308 306 306 305 303 301 302 300 302 304 306 308 307 307 306 305
308 309 310 313 315 315 314 315 315 317 319 318 317 314 312 308 305 304 300 297 306 306 304 304 305 302 304 309 310 304 306 306 306 306 307 303 302 303 304 302 304 306 306 305 303 303 304
306 307 307 310 316 315 314 314 317 317 317 318 316 313 309 306 304 300 299 299 304 301 301 304 306 306 305 308 309 309 306 306 304 305 306 307 304 303 302 302 302 302 303 303 303 303 302
306 305 305 307 314 315 314 314 316 318 318 318 314 310 308 305 302 300 298 297 301 302 299 299 304 306 307 308 309 310 304 303 304 303 304 306 308 308 304 306 305 304 304 305 306 306 305
306 305 305 307 311 315 314 315 316 317 318 315 311 308 306 302 299 297 297 295 301 301 296 297 301 305 308 310 311 309 305 304 303 304 302 303 304 306 306 306 305 307 305 307 307 308 308
305 304 306 308 312 315 316 316 317 318 317 313 309 306 304 301 297 301 301 302 304 302 305 301 304 303 308 307 306 306 307 307 304 304 304 305 307 306 306 306 305 306 307 307 307 307 308
303 305 307 313 315 316 316 316 317 318 314 309 307 305 301 297 299 301 302 303 304 308 302 306 305 306 307 308 306 307 307 307 306 306 306 305 306 307 307 307 306 306 307 307 306 307 310
303 306 308 315 317 317 317 317 317 313 309 305 303 301 299 296 298 301 301 302 304 303 305 309 309 307 308 307 306 306 307 307 307 305 304 308 306 306 306 309 307 305 307 310 309 310 312
303 302 306 313 317 316 317 315 310 307 304 302 301 299 298 297 300 301 302 306 303 303 303 301 302 304 302 300 301 300 305 307 305 309 310 307 305 306 305 306 304 305 308 309 313 314 311
303 303 301 301 306 309 309 307 305 303 301 299 298 296 296 299 301 303 303 305 301 304 301 301 302 301 302 302 302 302 306 307 305 304 306 310 310 305 304 304 302 305 310 310 313 311 313
303 303 303 303 300 298 298 299 299 298 297 296 294 294 295 299 301 303 305 304 306 301 301 302 302 303 302 301 301 301 305 304 305 304 303 306 303 304 304 301 301 302 302 306 308 314 315
301 301 301 301 301 301 300 300 298 298 298 296 297 298 298 301 302 303 303 307 301 300 301 302 302 301 302 301 300 300 304 303 303 304 302 302 302 304 300 302 300 300 300 303 310 310 312
300 300 299 299 299 299 299 298 298 296 296 298 299 301 299 301 303 303 306 305 301 300 301 301 302 302 301 300 300 300 303 305 304 302 303 303 303 303 301 300 300 301 306 308 299 303 307
299 299 298 299 298 298 298 297 297 296 298 299 299 300 300 301 304 303 303 301 301 300 300 300 300 300 299 299 300 302 305 303 302 301 303 302 301 302 298 300 301 302 302 304 305 306 305
299 298 297 297 298 298 297 297 297 297 297 298 296 298 298 300 301 303 301 301 299 299 299 298 299 299 299 300 300 300 301 299 299 303 305 301 301 300 299 300 302 303 302 301 300 295 301
298 297 297 296 296 297 297 297 297 297 296 297 297 296 298 301 301 299 300 301 300 299 298 298 298 298 299 299 298 298 297 297 297 303 301 299 301 302 302 301 302 302 302 301 301 300 301
298 298 295 296 296 296 296 297 296 295 295 297 299 299 296 298 299 298 299 300 299 298 298 297 298 297 296 297 297 297 297 297 297 303 300 299 296 301 301 301 301 300 298 298 299 300 301
298 297 297 297 295 296 296 294 294 294 296 296 296 296 297 297 297 298 298 299 299 298 298 298 297 296 297 296 296 296 295 296 296 296 297 298 298 298 296 297 297 297 299 300 301 305 301
296 297 297 296 296 296 294 295 297 297 298 297 297 295 297 298 297 298 299 298 298 297 298 298 297 297 297 296 296 296 294 294 295 295 295 298 295 295 298 298 296 296 304 304 305 303 304
296 297 296 295 296 294 294 298 298 298 298 298 298 296 296 296 298 299 299 298 297 296 298 297 297 296 295 296 296 297 297 298 298 296 295 296 296 293 295 295 297 301 302 303 304 301 299
297 296 296 295 295 293 296 298 297 298 298 298 298 297 296 298 297 298 296 296 295 295 294 296 295 294 293 290 294 298 299 300 299 302 296 296 297 292 293 297 303 300 300 300 303 304 297
296 296 296 293 293 293 296 297 297 296 297 298 296 297 296 295 297 296 296 295 293 292 292 293 295 295 293 287 290 293 299 300 304 306 300 299 299 298 297 300 301 297 297 300 307 300 294
294 294 295 292 292 293 295 297 296 296 297 297 296 296 297 293 295 296 295 294 293 292 291 293 292 291 292 292 296 295 299 301 302 303 302 302 300 300 301 301 303 296 298 301 297 294 292
294 294 293 292 293 292 295 297 296 295 296 296 296 296 297 293 294 295 296 296 295 293 292 292 290 294 291 294 297 299 299 300 301 302 300 301 301 302 301 299 296 295 295 295 294 293 291

GFSGBSN_925_thetae_105.txt.gz
Theta_e
311 311 310 310 310 311 315 321 323 325 324 324 324 323 319 317 314 310 308 305 304 304 302 299 297 300 301 300 300 302 304 306 306 308 307 306 306 304 304 303 305 308 309 310 309 310 310
310 310 310 310 308 308 308 310 317 321 322 322 323 323 322 319 315 311 308 305 304 304 301 298 297 303 304 297 301 301 302 303 306 308 306 305 305 304 306 310 308 309 307 308 309 309 308
310 309 308 308 308 307 307 307 308 312 318 317 321 321 321 320 316 312 308 305 304 303 299 297 299 305 305 300 302 301 304 307 306 306 307 306 307 309 307 306 307 308 309 310 310 311 311
308 308 308 307 308 308 306 307 307 308 310 315 318 320 319 319 315 312 307 305 304 302 298 298 303 305 304 301 301 301 301 302 306 306 306 306 307 307 305 306 306 308 309 310 310 309 310
306 308 308 308 310 310 311 312 311 312 313 313 317 320 316 317 315 312 307 305 303 300 297 299 305 305 304 302 302 302 301 303 302 305 305 305 305 306 305 306 306 307 309 310 310 309 309
307 308 308 309 309 308 309 311 312 312 313 314 316 318 318 317 313 310 306 303 299 301 303 303 306 304 304 304 306 308 308 305 305 303 304 305 304 305 304 306 308 308 309 309 310 309 308
307 307 307 307 307 307 306 309 313 314 314 313 315 317 316 315 313 308 304 302 305 305 305 305 306 302 302 307 308 305 307 306 306 307 307 304 306 307 307 305 305 306 307 306 306 306 305
305 307 307 306 306 305 305 306 308 313 314 313 314 318 315 314 311 306 303 298 304 301 303 304 304 305 304 306 308 308 306 309 307 309 307 306 307 306 306 304 304 304 305 307 307 307 306
304 304 305 306 305 304 305 306 308 313 314 313 315 315 313 308 306 303 299 297 301 302 303 303 303 304 304 305 304 308 305 305 307 307 308 310 310 307 305 305 305 307 308 308 309 308 308
302 302 304 304 303 304 306 307 310 314 314 313 316 316 310 306 303 300 299 303 301 298 301 304 301 304 306 307 307 304 305 305 304 307 304 306 307 308 308 309 308 309 306 307 308 309 310
301 303 303 303 304 305 308 311 314 314 314 315 315 311 307 308 300 299 300 297 299 300 311 304 302 303 308 306 306 306 305 305 306 305 305 306 306 305 306 306 306 308 307 308 309 309 309
301 303 303 303 305 307 310 314 315 315 316 316 313 307 305 300 299 301 302 303 301 305 310 304 305 305 309 309 307 307 306 307 305 305 306 306 306 307 308 307 306 307 308 308 308 310 312
301 303 303 304 305 308 313 316 316 315 315 316 309 306 305 302 301 302 301 302 303 308 304 308 307 307 307 306 307 307 308 308 309 310 309 308 306 306 307 309 307 308 310 310 311 313 311
302 304 302 303 306 309 316 316 316 316 316 308 303 301 298 300 301 302 300 303 307 305 304 303 305 307 308 301 301 301 308 309 307 307 308 305 308 307 305 304 305 306 310 311 312 312 312
301 303 303 302 304 310 316 316 317 313 306 302 299 298 298 300 300 300 303 306 307 304 301 301 302 303 302 301 301 307 307 308 305 305 309 309 309 305 303 303 303 307 311 308 311 312 311
301 303 303 302 300 302 308 308 306 304 301 300 297 295 298 300 300 301 304 306 303 301 301 302 303 303 302 302 302 304 307 305 305 304 304 307 307 304 304 302 301 304 302 306 313 309 306
301 303 302 302 303 301 298 297 297 297 297 299 297 298 297 299 300 302 305 304 303 300 300 302 302 303 302 302 301 302 305 304 304 304 303 303 303 304 301 301 300 300 300 304 309 312 308
300 301 301 302 301 301 302 301 301 300 299 300 296 299 297 299 303 304 304 304 302 301 301 302 302 302 304 305 301 301 304 305 303 303 303 303 304 302 301 301 301 301 305 306 304 303 308
300 300 300 300 300 300 299 299 298 298 298 298 298 297 297 299 303 304 303 303 302 301 300 301 302 301 300 301 301 303 305 303 302 303 305 303 302 300 302 302 301 303 302 305 305 305 305
300 299 299 299 299 299 299 298 297 297 298 298 299 301 300 301 302 302 304 303 299 299 299 299 300 299 301 301 300 302 303 299 300 305 304 302 302 300 298 301 302 303 302 302 302 303 301
299 298 298 297 298 299 298 298 297 299 298 298 297 299 299 301 302 302 302 301 300 299 298 298 298 299 300 300 299 299 298 298 299 304 302 302 302 302 301 301 302 302 302 302 302 301 302
299 297 297 297 297 296 296 297 297 298 297 296 299 300 298 300 302 301 300 300 299 298 298 297 298 297 297 298 298 298 298 298 298 303 302 300 301 302 301 300 300 299 298 299 299 299 299
298 297 296 295 296 296 296 297 296 297 296 296 295 296 299 299 298 300 300 299 299 299 299 298 298 297 297 297 297 296 296 297 297 300 301 301 301 299 298 297 297 296 297 299 300 303 302
298 297 296 295 296 296 296 295 295 295 296 297 297 295 299 299 298 299 299 299 299 298 299 298 298 298 297 296 296 296 296 296 296 297 299 299 299 298 298 298 295 297 304 303 304 302 300
297 297 297 295 295 296 294 297 297 297 297 298 297 296 297 298 299 299 299 299 298 298 298 297 297 297 295 297 297 296 298 298 298 296 296 297 298 299 298 298 297 299 300 302 302 303 298
297 296 296 296 295 294 297 298 297 298 299 297 297 296 296 299 298 298 297 297 297 296 297 297 295 294 294 295 297 299 300 299 301 301 297 296 298 298 297 298 299 299 298 298 300 305 296
297 295 294 294 292 296 297 297 297 298 297 297 296 296 297 297 297 296 297 296 293 294 295 295 296 297 294 295 298 299 300 300 303 306 301 300 299 299 298 299 299 297 296 299 306 300 293
296 295 293 293 293 296 297 296 296 297 297 297 295 296 297 296 295 296 295 294 294 294 296 295 295 295 295 297 298 298 299 301 301 302 301 300 300 299 299 300 301 295 297 299 296 293 291
295 294 294 292 293 296 297 296 296 296 296 297 296 295 296 295 295 295 295 295 294 292 294 293 293 294 295 298 298 299 300 300 300 302 300 301 301 302 301 300 296 294 294 293 293 292 291

GFSGBSN_925_thetae_108.txt.gz
Theta_e
311 310 310 310 310 309 308 308 310 314 320 320 322 324 323 323 322 318 314 310 307 305 304 302 298 297 303 306 309 307 307 306 310 310 309 310 310 310 310 309 309 310 310 310 311 311 311
309 309 309 309 308 308 307 307 307 307 308 313 319 319 321 321 322 319 315 311 307 305 304 301 298 297 305 307 305 304 304 309 307 309 308 308 309 310 309 308 309 310 311 311 312 313 312
309 309 308 307 308 308 307 307 307 306 306 307 311 318 318 317 320 319 316 311 307 305 303 299 298 304 306 307 304 305 304 307 307 309 309 308 308 308 310 311 311 311 311 312 312 312 312
307 308 307 308 307 308 309 310 311 311 310 308 308 311 316 317 318 318 315 310 307 305 302 298 299 306 308 305 305 305 304 305 307 308 308 309 309 312 311 310 310 310 312 314 314 313 313
306 307 307 308 307 308 309 308 308 307 308 312 312 313 314 315 316 316 314 310 307 304 302 298 304 306 310 306 305 305 305 304 304 308 307 306 308 310 309 310 312 312 314 314 314 313 313
306 305 306 307 306 306 306 307 306 305 305 309 312 312 313 315 316 315 311 308 304 302 301 303 306 306 310 313 307 309 309 304 304 308 309 308 309 310 310 311 315 315 314 313 313 313 312
304 305 306 307 307 306 306 307 305 303 304 305 311 313 313 315 316 314 309 304 305 308 305 311 312 313 306 307 309 310 309 309 306 305 305 308 309 310 311 311 311 311 311 311 312 311 309
305 306 306 306 306 305 306 305 303 304 305 306 308 313 313 314 314 311 312 308 307 305 310 308 308 308 310 308 310 311 309 311 310 308 307 308 308 309 309 309 309 309 310 311 311 311 311
303 304 304 305 304 304 304 302 304 305 306 307 310 313 314 315 311 307 306 303 303 302 307 312 309 311 311 308 310 313 309 310 312 311 311 311 311 311 310 310 311 311 311 311 311 311 312
303 301 300 303 304 304 302 303 304 306 306 311 312 314 314 309 306 303 301 300 301 302 307 315 309 309 309 308 310 310 310 310 311 313 312 312 312 311 310 311 310 311 310 310 310 310 311
303 302 300 301 303 302 302 303 305 306 311 313 314 314 313 312 304 303 305 302 300 301 316 310 307 305 308 309 309 310 309 310 311 311 313 313 308 308 311 310 310 310 308 310 310 311 312
302 302 301 302 303 303 303 304 305 309 314 315 315 313 313 307 304 304 303 300 302 311 317 313 306 307 309 308 308 309 308 309 310 310 308 309 308 309 309 309 309 309 310 310 311 311 313
302 302 302 301 302 303 303 305 306 313 316 315 314 309 308 306 305 299 299 304 309 316 308 310 309 307 309 308 308 310 308 309 310 310 310 309 309 309 309 310 309 309 311 313 313 313 311
302 302 303 302 302 303 303 305 310 315 316 315 314 310 305 306 301 301 302 307 315 314 312 306 308 309 309 306 308 309 308 308 308 309 309 310 311 309 307 309 310 310 311 311 310 310 311
302 302 302 302 302 303 304 308 314 316 316 310 304 301 301 302 302 302 307 312 315 313 308 307 306 310 309 305 307 309 310 307 309 310 309 310 309 306 305 304 305 309 311 309 312 311 313
301 302 302 302 302 302 306 308 316 316 308 304 302 300 300 301 301 303 308 315 312 307 303 304 307 309 310 306 305 307 310 309 308 307 310 310 310 307 306 304 303 306 305 310 312 309 306
299 301 301 303 303 300 303 309 312 309 303 302 300 300 297 300 301 303 310 310 307 302 303 304 305 307 307 305 305 306 309 306 308 306 308 309 308 306 304 305 306 304 303 304 307 308 308
298 302 300 302 302 302 299 299 300 300 300 299 296 300 296 299 303 305 307 307 304 303 302 303 303 305 306 308 304 305 306 307 305 305 305 305 305 305 304 303 303 302 302 302 306 303 306
299 301 301 301 301 302 302 301 300 299 300 297 297 297 296 298 307 306 305 305 303 302 303 304 306 304 303 309 309 306 306 303 304 304 305 305 304 303 302 303 304 303 305 305 307 306 306
298 299 300 300 301 301 301 301 300 300 299 298 300 303 297 298 301 305 305 306 304 302 302 302 305 305 306 305 305 305 304 301 303 304 304 303 303 301 300 303 304 304 303 303 304 306 304
298 301 300 299 300 300 300 299 299 299 298 299 302 305 303 304 305 305 304 305 304 304 301 301 302 304 304 304 303 304 303 301 303 305 304 303 302 302 301 300 301 301 301 302 303 303 304
296 295 299 298 298 298 299 298 298 298 298 300 303 302 301 304 304 304 304 305 303 301 301 301 302 301 302 302 302 302 303 302 302 304 303 303 303 302 301 301 300 300 300 300 301 301 301
298 299 298 298 298 298 298 298 298 298 297 300 299 299 301 303 304 305 305 302 302 301 300 300 301 301 301 300 300 300 300 300 300 303 304 303 302 301 300 298 298 299 299 299 299 301 301
298 298 297 297 297 297 297 297 298 298 297 298 299 299 303 305 306 304 302 301 301 301 301 299 300 300 300 300 300 299 299 299 299 299 301 300 301 299 299 299 299 304 303 303 303 305 305
298 297 297 296 296 296 296 296 297 297 297 298 298 300 302 304 303 301 301 302 302 301 300 300 300 300 300 299 298 297 299 300 300 299 299 299 299 300 300 300 300 300 302 302 303 305 300
297 297 296 296 295 295 295 295 296 296 296 299 299 298 302 304 302 301 302 301 301 300 300 299 298 298 299 300 300 300 300 301 303 302 300 300 300 300 301 301 302 304 300 299 301 304 297
297 297 295 294 294 295 297 295 297 296 298 298 298 297 301 302 300 300 300 300 299 300 300 299 299 299 299 301 303 303 302 302 305 307 302 302 301 302 302 303 303 299 298 299 304 301 294
296 296 294 294 295 297 296 298 298 298 298 298 297 296 301 302 298 298 297 298 297 298 299 299 299 299 301 302 304 303 303 302 304 303 304 303 303 303 303 304 305 297 298 301 297 294 293
294 293 293 294 296 296 296 297 297 297 296 296 298 295 298 302 298 297 296 295 296 297 299 299 300 300 301 303 302 302 304 303 303 307 302 305 303 306 303 303 297 295 295 294 294 294 292

GFSGBSN_925_thetae_111.txt.gz
Theta_e
311 311 310 310 310 310 309 309 308 308 308 310 313 319 319 320 322 321 320 316 313 310 306 304 302 299 307 316 318 314 307 306 308 311 312 314 314 314 316 317 316 315 316 316 315 314 314
309 309 310 309 308 307 307 307 307 307 307 307 307 308 312 319 320 320 320 317 313 310 307 304 301 298 310 319 314 308 309 313 311 312 312 312 314 314 314 315 315 315 315 314 315 315 315
309 309 308 308 307 308 308 309 310 310 311 309 307 307 309 313 316 318 319 317 313 309 306 303 299 303 310 316 315 311 308 309 311 311 313 312 311 312 313 314 315 315 316 317 317 316 316
307 307 307 307 307 308 308 308 308 308 308 307 308 309 311 312 313 315 318 317 313 309 306 303 297 305 312 315 312 311 310 310 309 311 311 311 311 312 313 314 315 314 315 317 318 319 317
306 306 307 306 305 307 307 306 307 307 306 305 304 306 310 312 313 314 317 316 311 308 306 304 303 308 317 311 310 310 310 311 310 310 310 310 311 313 314 316 317 317 318 320 321 318 316
305 305 306 306 306 306 307 307 307 307 306 304 303 304 307 312 312 315 316 313 307 305 303 303 304 310 313 318 317 309 311 309 309 309 311 311 311 313 314 315 318 319 320 320 319 318 317
304 304 306 307 306 307 307 307 306 304 302 302 304 305 306 311 313 314 313 307 308 309 306 315 318 317 317 314 310 312 312 309 308 308 312 313 313 315 316 316 316 316 317 318 317 317 316
304 304 305 306 307 307 306 305 303 301 301 303 304 305 307 310 314 313 312 310 314 312 317 314 316 317 315 316 317 317 314 314 314 312 312 313 314 314 315 315 315 315 315 315 315 314 314
304 303 304 305 304 304 304 304 301 301 302 303 304 306 309 310 314 310 312 312 310 310 314 315 315 316 315 315 316 317 317 315 315 316 316 315 313 313 313 314 313 313 314 314 314 314 315
301 302 302 304 304 302 301 300 301 301 303 304 305 308 310 312 308 308 309 307 304 309 313 316 316 315 314 315 316 313 313 316 316 315 317 316 316 314 315 315 314 314 314 314 313 313 314
301 302 302 302 302 302 301 302 302 301 302 304 305 309 311 312 310 307 307 302 305 309 320 313 314 309 311 313 314 313 313 316 318 316 315 317 316 316 315 315 314 313 313 312 312 313 313
302 302 302 302 302 302 302 301 302 302 302 304 307 312 312 312 308 308 304 304 308 316 319 313 311 309 311 312 312 311 310 313 315 315 315 315 314 314 312 311 312 312 311 311 311 311 313
302 301 301 301 302 302 303 301 302 302 303 306 311 314 313 309 306 307 303 306 314 320 313 314 313 311 312 313 312 311 311 313 314 314 315 314 313 313 310 311 310 310 311 313 313 314 314
301 301 301 301 302 302 303 302 302 302 305 310 315 315 311 309 305 303 305 311 318 314 314 312 313 312 312 312 311 310 312 311 311 313 313 316 319 312 311 311 311 311 310 312 319 318 316
302 301 301 301 302 303 302 302 303 302 308 314 315 308 306 305 304 304 310 316 316 314 313 313 312 312 313 312 309 310 311 312 311 312 312 314 313 312 309 308 308 310 313 311 314 315 315
301 301 301 301 301 303 302 302 301 304 312 312 305 303 301 303 302 305 312 315 314 315 314 312 314 313 315 315 311 310 311 311 310 310 311 313 317 310 308 307 307 307 308 314 311 311 312
299 300 300 299 299 302 301 302 302 309 311 308 304 302 299 302 303 306 312 315 315 313 309 310 312 312 312 312 311 309 310 311 311 310 312 312 312 311 308 308 308 307 307 307 308 310 313
298 297 298 298 299 302 301 302 308 309 305 303 300 304 299 302 304 304 311 313 311 310 305 307 307 309 310 311 310 308 308 311 309 311 311 310 311 312 309 307 306 306 307 307 311 308 308
297 298 298 298 299 302 302 302 301 302 300 298 300 298 295 300 308 309 309 310 309 307 307 307 307 306 308 311 308 307 308 307 307 309 309 308 309 310 307 306 305 305 305 305 306 307 307
296 298 299 299 299 301 302 302 300 300 300 298 300 302 298 298 302 309 310 311 309 308 309 308 308 307 307 310 309 310 308 305 306 306 305 305 307 307 306 304 306 305 304 305 306 310 307
296 296 299 297 298 301 302 302 301 300 300 300 303 305 303 305 306 307 309 308 307 304 305 305 307 307 308 310 309 309 309 306 305 306 305 305 306 305 304 304 302 303 304 304 305 306 307
296 297 298 297 301 300 302 301 301 300 299 300 304 307 303 305 304 308 308 308 308 306 305 305 306 307 308 308 307 307 307 306 306 307 306 305 305 304 304 303 302 302 302 302 302 303 303
296 298 297 297 297 300 300 301 300 299 298 299 302 304 305 305 307 307 307 309 308 306 304 305 305 305 305 304 303 304 305 305 304 305 306 305 304 303 303 300 300 301 301 301 301 302 302
297 298 297 296 298 299 300 300 299 298 297 300 302 303 307 308 307 307 306 308 307 305 304 303 304 304 303 302 302 302 302 302 302 302 305 303 303 303 302 300 301 304 304 304 304 303 303
296 297 298 298 299 299 299 298 298 298 297 299 300 303 307 308 307 307 305 305 305 303 303 303 303 303 302 301 300 299 300 300 299 300 301 301 301 302 302 302 301 303 304 303 303 304 304
297 296 298 298 298 298 297 297 298 297 297 298 301 301 304 308 307 305 304 304 304 304 303 302 301 301 301 301 301 300 302 302 304 302 302 301 301 302 302 302 303 307 302 301 301 304 300
297 298 297 297 297 297 297 296 296 296 296 299 301 300 303 306 304 304 305 304 304 303 303 302 300 300 301 304 305 304 303 302 304 307 304 304 303 303 303 304 307 300 300 301 304 303 297
297 297 296 296 296 295 296 296 295 297 297 300 301 299 304 305 302 302 302 302 302 302 303 301 301 301 302 304 306 305 307 304 307 306 305 304 305 306 306 308 308 298 300 302 299 295 295
296 295 295 295 297 297 296 297 298 298 298 298 300 299 301 303 300 299 299 299 300 300 302 301 305 302 304 307 306 305 305 306 307 307 304 306 306 309 304 304 298 296 296 295 296 295 293

GFSGBSN_925_thetae_114.txt.gz
Theta_e
311 310 310 310 310 310 309 308 308 308 308 308 308 309 310 312 315 318 321 320 319 316 312 309 307 305 309 320 320 318 313 309 307 310 313 315 316 317 318 318 319 320 319 318 318 318 317
308 309 309 310 309 308 307 308 308 309 309 309 307 307 307 307 313 315 317 319 319 317 312 308 308 305 309 320 320 316 311 313 311 313 314 315 315 316 316 317 317 318 318 318 317 316 317
308 309 308 308 307 307 308 308 307 309 308 307 307 308 308 308 309 312 314 316 318 316 311 308 308 304 309 316 319 320 314 312 313 314 316 314 315 315 315 316 317 317 316 317 317 318 318
307 307 307 307 307 306 308 308 306 306 306 306 306 305 304 307 310 312 313 313 317 314 310 308 306 304 313 317 318 317 318 319 313 312 313 314 314 314 314 315 315 316 317 319 318 319 319
306 306 306 306 306 305 305 307 307 307 307 306 304 303 303 304 309 312 313 315 314 311 309 307 304 308 316 315 317 317 315 315 315 314 312 313 313 314 315 315 317 317 320 321 320 320 321
306 306 305 306 306 306 306 306 307 307 306 304 302 302 304 305 308 312 312 314 310 308 306 304 305 311 313 317 317 315 312 312 314 313 313 313 312 313 315 316 320 319 319 319 320 320 320
305 306 305 305 306 306 307 308 307 306 303 302 301 303 305 306 308 313 312 310 309 311 306 316 314 315 317 317 314 314 314 313 312 312 311 313 315 316 316 317 317 317 317 318 318 318 318
305 306 305 305 305 306 307 306 305 303 301 301 302 303 304 306 308 312 311 311 314 314 317 313 315 315 314 314 316 316 316 315 315 314 313 313 317 316 316 316 316 317 317 317 317 316 317
304 304 305 305 305 305 306 305 304 301 301 301 302 303 305 307 309 311 311 312 313 311 316 315 314 315 315 315 316 316 315 317 317 317 317 317 316 316 315 314 314 315 315 317 316 314 315
303 302 303 303 304 305 304 303 301 301 301 302 301 302 305 308 310 310 311 313 309 312 317 313 313 315 315 314 316 315 315 316 316 318 318 316 315 314 315 316 315 315 315 316 315 315 317
302 302 302 302 302 301 301 302 301 301 300 301 302 302 305 307 311 310 310 311 310 312 317 310 312 312 313 316 316 314 315 316 316 317 316 318 316 315 317 318 317 317 316 316 315 315 317
302 302 302 302 302 302 301 301 301 301 301 301 302 303 305 309 310 310 307 308 311 316 318 311 312 313 314 314 315 314 313 313 315 315 315 317 316 316 316 317 317 313 312 315 316 314 316
302 303 303 302 301 300 300 301 302 302 301 301 302 302 307 310 311 308 307 310 315 318 311 311 312 313 312 312 314 314 314 313 313 317 318 317 316 315 316 316 313 312 312 313 320 317 317
301 302 302 302 301 300 300 302 302 302 301 302 302 304 310 311 309 305 308 312 319 312 313 311 312 313 314 313 314 314 313 313 313 314 315 315 318 314 315 315 314 312 313 317 317 317 317
301 302 302 302 301 301 300 301 302 302 301 302 302 309 312 309 307 306 311 315 315 313 311 312 312 313 312 312 312 312 312 312 312 313 314 315 315 313 312 314 312 313 314 314 316 316 317
300 300 300 301 301 301 301 301 302 302 301 302 306 305 303 308 305 308 313 314 314 312 312 312 313 314 314 312 313 313 312 312 312 312 313 313 314 315 313 309 309 308 309 313 317 321 316
298 299 299 299 300 300 299 299 301 301 302 303 306 305 301 304 303 307 313 315 315 313 312 315 315 314 315 315 315 317 314 311 312 312 311 312 314 315 313 310 310 309 308 308 310 310 317
297 297 297 297 297 297 298 299 302 302 306 307 303 306 300 302 304 303 310 313 312 314 314 315 313 314 314 314 314 313 315 313 311 312 312 310 313 315 313 310 308 308 310 310 312 310 311
297 297 297 298 297 299 297 299 301 303 302 301 299 299 298 302 308 308 309 313 312 314 314 313 311 310 311 312 313 312 310 309 309 312 312 311 313 313 311 311 308 307 307 307 310 311 310
296 297 297 297 298 298 299 299 302 302 300 298 301 302 298 298 303 309 309 312 313 312 313 310 310 310 310 311 312 311 309 307 307 308 306 309 310 312 314 309 307 308 307 306 308 310 309
296 296 296 296 297 298 299 298 301 301 300 300 303 304 304 303 303 307 309 311 313 314 310 311 311 311 310 311 313 312 310 308 306 306 305 306 308 308 307 307 305 304 304 305 305 306 308
296 296 296 296 296 297 297 297 302 301 301 300 301 307 304 307 305 306 310 312 313 311 310 312 310 310 309 311 312 312 309 310 309 307 308 307 308 305 306 305 304 303 303 303 302 303 304
296 296 296 297 297 298 298 299 299 301 300 299 300 303 306 306 306 307 310 310 311 308 307 307 307 308 310 310 308 307 309 308 307 309 309 307 306 305 304 302 302 302 302 302 302 303 303
296 296 296 296 297 298 297 299 300 300 299 299 302 304 307 309 307 309 308 308 310 309 308 307 308 309 306 304 304 304 304 304 304 305 306 305 306 304 305 302 302 302 305 305 305 304 305
294 294 296 296 298 298 299 297 301 300 299 299 300 303 306 311 306 306 306 308 308 308 306 306 305 305 305 303 302 301 301 301 301 302 302 304 304 305 304 302 302 303 305 304 303 302 304
295 298 298 298 298 297 297 299 300 300 298 298 298 302 304 309 308 307 309 309 309 308 305 304 303 303 303 307 303 300 301 301 302 300 300 301 301 304 302 303 303 306 303 302 302 303 299
297 297 297 298 298 297 299 300 299 298 298 297 301 300 302 307 307 308 309 309 307 305 305 304 303 302 303 306 306 303 302 303 305 304 303 303 303 302 304 305 307 301 300 301 304 301 296
297 297 295 297 298 298 298 298 298 297 297 298 302 300 302 306 304 306 305 307 306 305 305 303 301 301 302 306 305 306 309 303 308 309 305 305 305 306 305 307 308 298 301 302 298 296 295
297 298 297 297 297 297 297 297 297 296 297 299 301 299 301 304 302 301 301 301 302 303 304 303 305 304 307 307 307 308 308 308 308 307 305 307 307 309 304 304 297 296 295 296 296 295 294

GFSGBSN_925_thetae_117.txt.gz
Theta_e
310 311 310 310 310 310 309 308 307 307 307 307 308 308 307 308 308 309 313 316 320 319 318 316 314 311 313 314 318 320 320 315 310 308 311 312 314 314 315 315 314 315 315 315 315 315 314
309 309 309 309 309 309 307 307 307 307 308 308 307 307 307 307 307 307 311 315 314 315 316 315 314 310 307 315 316 319 319 312 313 311 312 313 314 314 314 314 314 315 315 315 315 315 315
308 309 309 308 308 307 306 308 307 305 305 306 306 306 305 305 306 309 309 312 314 314 316 314 312 306 306 313 314 312 317 316 312 314 314 315 315 313 313 314 313 314 313 313 313 313 314
306 307 307 307 307 307 306 307 308 306 306 307 306 304 303 302 304 308 311 312 314 314 314 313 311 304 308 314 314 316 317 317 318 313 313 312 314 312 313 312 313 313 313 314 314 315 316
306 306 306 306 305 306 305 305 306 307 308 307 304 302 301 303 305 308 311 312 314 312 312 311 308 305 311 312 315 316 316 317 316 318 314 313 312 312 312 313 312 312 313 315 315 316 317
305 306 306 306 305 306 306 306 306 307 307 305 301 300 302 304 306 309 312 310 313 311 309 305 305 307 309 313 315 316 316 315 314 314 313 311 310 310 309 311 316 315 315 314 315 314 315
307 306 306 306 305 305 306 307 307 307 305 302 301 301 303 304 307 309 311 310 308 307 306 310 310 309 313 315 313 316 313 312 312 312 311 311 310 310 310 311 314 314 315 316 315 315 315
305 307 306 306 306 305 306 305 305 305 304 301 301 302 303 305 307 308 310 311 312 311 313 309 311 312 310 312 314 314 314 313 312 310 311 310 311 312 314 315 315 316 315 314 313 313 314
303 305 306 305 305 305 305 305 305 304 302 301 301 302 302 305 307 308 310 310 311 312 311 313 313 314 314 315 315 314 313 314 315 314 314 312 313 313 313 314 315 315 314 313 313 313 313
302 302 303 303 303 303 303 304 302 302 302 301 301 301 302 305 306 307 309 309 312 311 311 313 313 313 313 315 315 314 314 313 315 316 316 316 315 315 315 314 313 313 315 317 316 317 317
303 301 303 302 302 301 301 301 301 301 301 301 301 301 303 305 310 308 309 310 311 311 309 309 312 313 315 314 314 314 313 314 316 316 315 316 316 316 317 316 314 315 317 312 312 315 317
302 303 303 302 302 302 301 302 301 301 302 301 302 301 303 306 307 309 309 311 311 314 314 312 312 314 313 314 315 314 313 314 314 315 315 315 313 314 315 315 315 316 314 311 310 313 317
302 301 301 301 302 302 302 301 300 300 302 302 302 301 303 304 309 309 310 310 314 313 310 308 310 313 313 314 314 313 314 313 311 312 313 314 315 314 315 316 315 316 312 315 314 315 314
301 301 301 300 301 303 302 301 300 300 301 302 301 301 303 305 307 309 309 311 315 311 308 309 310 311 312 312 312 312 313 313 312 311 312 313 314 314 314 315 316 315 312 315 319 317 315
301 301 301 301 301 302 302 300 300 300 301 302 302 303 306 310 310 308 311 312 311 310 309 310 309 310 310 311 312 311 312 313 311 310 312 312 315 312 313 312 314 313 312 312 315 315 315
300 300 300 300 300 300 301 301 300 300 300 301 302 303 305 311 308 308 310 311 311 310 309 310 312 312 312 312 313 311 311 312 311 310 310 312 314 314 314 309 309 310 308 314 315 318 318
299 299 300 299 299 298 299 300 300 298 299 301 302 305 304 309 306 309 312 312 311 310 311 312 313 312 315 314 315 315 317 316 313 311 309 312 312 314 313 312 308 308 308 308 314 313 316
298 298 298 298 298 296 295 297 298 298 299 302 302 304 303 305 306 303 309 310 310 311 312 311 313 314 316 314 314 315 317 316 310 310 311 309 313 315 315 312 310 308 310 310 309 309 309
297 297 297 297 298 296 296 296 298 297 299 302 302 300 300 302 309 306 308 310 311 312 313 313 315 314 314 311 312 312 312 309 309 312 312 310 310 312 312 312 312 312 308 309 310 310 310
296 297 297 297 297 298 297 297 298 297 300 301 299 301 298 299 304 307 308 309 311 311 311 313 314 311 311 310 311 311 311 308 307 308 309 309 310 311 312 312 310 308 308 307 307 308 308
296 296 296 297 297 297 297 297 297 299 301 300 300 302 300 301 303 306 309 309 310 311 312 311 313 311 311 311 311 312 311 306 306 307 306 306 307 309 308 308 308 309 308 306 307 306 307
296 296 296 296 297 297 297 297 297 298 301 300 299 302 303 304 303 304 307 311 310 310 312 313 311 311 311 313 312 314 311 309 309 306 306 306 308 304 305 305 305 305 303 303 303 304 303
295 296 296 296 296 296 297 297 296 297 300 300 300 301 305 304 306 304 305 308 310 310 311 311 311 311 312 310 309 307 305 308 308 307 306 307 306 304 305 303 302 301 302 304 302 306 306
295 295 296 296 296 297 297 297 297 298 299 299 300 302 304 305 306 304 305 306 309 311 310 308 310 308 309 306 304 304 303 303 305 307 306 306 305 304 305 302 303 305 304 303 304 304 305
294 295 295 296 296 297 297 297 297 299 297 299 301 302 303 305 305 306 306 307 308 310 309 308 308 307 306 305 303 301 300 300 301 303 304 304 303 303 302 303 303 303 302 299 299 301 300
294 295 295 296 295 295 296 296 297 297 296 300 300 300 302 305 306 305 307 308 307 306 307 306 305 306 304 304 302 301 303 302 299 300 302 302 301 300 302 302 296 304 302 302 300 298 297
295 294 295 295 296 296 296 297 298 297 296 299 298 299 302 303 304 305 306 306 307 306 304 303 302 302 302 301 304 303 302 303 302 303 301 301 301 301 301 300 303 301 299 300 299 295 296
296 297 295 298 297 298 297 298 298 299 299 299 299 300 302 301 301 306 307 307 307 304 303 301 300 300 301 304 303 303 303 303 306 305 303 302 303 300 298 299 303 297 299 301 297 295 294
297 296 297 295 298 298 297 297 298 299 299 298 300 300 300 301 301 302 301 302 305 303 301 300 302 300 302 301 302 302 302 302 303 305 305 303 300 305 300 298 297 296 296 296 295 294 294

GFSGBSN_925_thetae_120.txt.gz
Theta_e
311 311 310 310 310 310 309 309 308 308 308 308 308 307 307 307 307 307 307 309 313 314 317 314 314 313 313 312 316 315 316 318 316 309 309 311 312 313 314 313 312 313 313 313 313 312 312
309 309 309 309 309 309 308 308 308 306 308 307 306 306 306 305 305 305 305 307 311 314 313 314 313 312 307 312 311 314 317 317 315 311 311 311 312 312 313 313 313 313 312 312 312 312 312
308 308 309 309 308 308 307 306 308 305 305 306 306 305 304 304 303 304 307 309 310 313 313 314 312 309 306 311 309 310 312 314 313 315 312 314 313 313 312 313 313 312 312 312 312 312 312
307 306 307 307 307 307 306 305 307 307 307 307 306 303 301 301 302 303 307 311 310 314 312 312 311 306 309 310 311 312 313 314 315 316 315 313 313 312 312 311 312 312 311 313 313 314 313
306 305 306 306 306 305 305 305 305 306 307 308 305 300 300 303 305 305 308 310 311 311 312 311 308 305 309 309 309 314 314 314 317 317 317 313 312 311 312 312 311 311 312 312 313 314 314
305 305 305 305 305 305 305 306 306 307 307 306 302 300 302 304 306 306 309 309 311 311 309 307 305 307 307 312 312 315 316 316 316 314 313 312 309 310 308 310 313 313 313 312 313 311 312
305 306 307 306 305 304 304 305 306 307 306 303 301 300 302 304 306 307 310 310 307 306 306 308 307 309 310 312 311 314 315 316 313 313 313 310 309 309 311 309 311 312 313 313 312 312 312
307 306 307 306 306 305 304 304 305 305 304 302 300 301 301 304 306 307 308 309 311 311 311 307 310 309 309 311 312 312 312 312 311 311 311 310 310 309 310 310 311 312 314 314 314 313 312
303 304 304 307 307 305 304 304 303 304 303 301 301 301 301 304 305 306 307 309 310 311 310 311 311 311 312 312 312 312 312 312 313 311 310 310 311 310 311 312 313 313 314 314 314 313 313
302 303 302 303 305 304 303 302 303 303 302 301 301 301 302 304 305 306 307 306 308 310 311 309 313 311 313 314 315 313 313 312 313 314 314 313 312 313 314 314 314 314 312 313 314 311 313
303 304 302 301 302 302 302 301 301 301 301 301 301 301 302 303 307 307 306 307 309 309 295 306 311 312 313 314 313 313 313 312 314 314 314 315 314 314 315 315 315 316 315 316 313 312 311
303 303 302 302 302 302 301 301 301 302 301 300 302 301 302 302 305 306 308 308 310 301 300 309 312 313 314 313 314 313 313 312 313 313 313 314 313 314 314 314 314 315 313 310 309 310 314
302 302 301 302 301 301 302 301 301 301 299 300 302 302 302 303 305 306 309 310 311 306 306 308 311 313 314 315 314 314 313 313 313 316 316 315 314 311 313 313 314 315 315 319 314 312 313
301 301 302 302 301 301 300 302 302 301 299 301 302 302 301 302 302 306 309 311 309 306 308 307 308 306 311 312 312 314 312 312 310 309 309 312 312 312 313 313 315 316 316 318 318 316 312
300 300 301 301 300 300 300 301 302 300 300 300 302 302 303 302 303 306 310 311 306 307 308 308 308 308 307 307 309 310 312 312 311 310 312 311 312 311 310 311 313 313 312 311 315 314 315
301 300 300 300 299 298 300 302 302 301 300 300 301 301 301 303 306 306 309 309 307 307 308 308 310 310 311 311 311 310 309 312 312 311 309 310 312 313 313 309 308 311 310 312 313 318 318
300 299 300 299 298 299 299 300 300 301 300 299 300 299 302 304 307 307 309 307 307 307 308 310 310 310 312 313 313 313 314 314 312 312 310 310 311 312 312 310 308 307 307 307 314 314 315
298 299 299 299 298 298 298 298 298 299 299 301 300 302 301 306 306 306 308 308 307 308 308 307 309 310 311 313 313 313 316 315 311 311 311 310 310 312 313 311 307 307 307 309 313 312 309
297 297 297 297 297 297 298 297 295 295 298 300 298 297 301 304 306 306 307 307 308 309 310 311 311 312 311 312 312 311 313 311 312 311 311 309 310 311 310 310 310 312 309 308 310 310 311
298 298 298 298 298 298 297 297 296 296 297 299 298 301 298 300 304 306 305 308 309 308 309 309 312 312 313 312 311 311 309 308 307 308 311 310 309 309 310 311 309 308 309 308 308 312 311
297 297 298 297 297 297 297 297 297 297 297 298 299 301 299 301 302 305 307 307 307 308 309 310 310 310 312 310 310 310 307 306 306 306 305 305 308 309 309 309 310 312 311 309 308 307 308
296 296 296 297 297 297 297 297 296 297 297 299 299 301 302 300 301 303 305 307 307 308 308 310 311 310 311 312 309 311 308 305 306 306 305 304 306 304 305 305 305 307 307 304 302 303 304
295 295 296 296 296 296 296 297 296 296 297 298 298 300 302 304 303 304 304 305 307 308 308 308 308 310 310 310 309 309 309 307 309 306 305 304 305 303 305 302 300 302 302 302 302 306 305
295 295 295 296 296 296 296 296 296 296 295 297 299 300 301 303 304 305 304 304 305 305 308 310 309 310 309 305 305 306 306 304 309 308 305 304 304 304 306 302 305 304 303 303 304 302 303
294 295 295 295 296 296 296 296 296 296 296 297 298 300 301 302 304 304 304 304 304 304 307 309 308 308 305 305 305 304 302 302 302 305 305 305 302 302 302 303 303 304 301 298 299 300 298
294 294 295 295 295 295 295 296 296 296 297 297 297 298 300 304 302 304 305 304 305 304 306 306 306 305 305 303 304 305 305 304 302 301 303 302 302 299 300 301 295 294 301 300 297 297 296
293 294 294 294 294 295 295 296 296 296 297 297 297 297 299 301 302 303 305 305 306 305 306 304 304 306 302 301 304 303 303 303 302 302 301 301 300 301 299 298 301 300 298 299 300 296 295
294 294 294 294 294 295 295 295 295 295 296 298 297 298 299 300 301 302 304 303 306 304 304 302 302 301 302 303 304 303 304 303 304 303 301 301 302 298 296 295 299 296 298 301 295 292 293
295 295 294 294 294 294 295 295 295 295 296 297 298 298 299 300 300 300 302 304 305 301 302 299 301 301 302 303 302 303 303 298 303 305 303 301 299 298 299 295 294 294 292 295 296 294 293

GFSGBSN_925_thetae_123.txt.gz
Theta_e
312 312 312 311 310 310 310 309 309 308 308 308 308 307 307 307 307 306 306 307 307 310 314 314 313 311 312 311 313 313 315 315 317 315 309 310 311 312 313 312 311 311 312 311 311 310 310
311 310 309 309 309 309 308 308 308 306 307 307 306 306 305 304 304 304 304 305 305 308 313 314 313 311 309 311 308 312 316 314 314 310 310 310 311 311 312 312 312 311 311 311 311 311 311
309 309 309 309 309 308 307 306 308 305 305 306 306 304 303 302 302 302 303 305 309 310 312 313 312 310 307 310 308 310 310 310 312 313 312 313 312 311 311 312 312 312 312 311 311 312 312
308 308 308 308 308 307 307 306 307 307 306 307 306 302 300 300 300 302 302 305 309 311 312 311 310 308 310 309 309 309 311 312 312 313 313 314 315 311 311 311 311 312 311 314 312 313 312
308 307 306 307 306 306 305 305 305 306 307 308 305 301 300 301 303 303 304 309 309 311 310 310 309 307 310 307 307 312 313 313 314 315 316 316 312 310 311 312 311 310 313 312 312 312 311
307 307 305 306 305 304 305 305 306 306 307 307 303 300 300 302 304 305 307 308 309 310 309 307 306 306 306 309 311 313 315 314 316 315 314 313 308 309 307 310 314 313 312 310 313 311 311
305 306 306 305 305 305 304 305 305 306 306 305 301 300 301 303 304 306 309 309 305 306 306 306 306 308 308 310 310 311 315 315 314 312 313 310 311 310 311 308 310 311 312 311 310 310 311
306 306 306 305 305 305 304 303 305 305 305 303 301 300 301 303 306 306 307 306 309 309 310 307 308 307 308 308 310 310 311 314 312 312 311 310 310 310 309 309 310 310 310 311 311 311 311
304 304 307 306 307 305 304 303 302 304 304 302 301 300 301 304 305 305 306 307 309 308 308 309 309 309 310 310 310 309 310 311 311 310 310 310 311 310 310 310 311 310 311 312 313 311 311
302 303 304 304 304 306 305 304 302 301 303 302 301 301 301 304 303 305 305 305 305 307 309 306 312 311 311 312 312 310 310 311 312 313 311 310 309 309 310 311 310 312 311 312 314 314 317
302 303 303 302 302 304 305 304 302 300 303 300 301 301 301 302 305 305 305 308 307 307 295 303 311 310 312 314 312 313 311 311 311 313 312 314 314 313 314 313 313 314 314 314 314 313 311
302 302 303 303 302 301 302 302 300 300 301 301 300 302 301 302 303 305 308 309 309 297 295 303 312 313 314 314 313 312 313 312 311 313 312 312 312 313 312 312 312 313 314 313 310 309 317
303 303 304 304 302 301 302 302 300 301 301 299 300 302 302 302 304 304 305 310 308 299 302 305 311 313 313 313 313 313 313 314 313 316 315 313 313 312 313 314 312 312 314 321 317 313 314
302 303 303 302 301 301 302 301 301 301 300 299 300 302 302 301 300 303 307 310 307 301 303 306 305 307 314 312 313 313 311 312 311 311 309 312 312 310 310 311 312 314 314 315 318 316 312
302 302 302 301 301 301 301 300 299 302 301 299 301 303 302 301 300 302 309 310 305 305 306 306 306 305 303 306 310 311 312 311 310 310 313 311 311 310 311 311 312 312 315 313 314 312 314
301 301 301 300 300 301 300 299 300 302 302 300 301 301 300 300 301 304 307 307 307 306 306 307 308 307 308 309 310 308 309 310 311 309 309 310 311 312 312 308 308 311 310 312 310 317 317
301 300 300 300 300 301 300 298 299 302 301 301 299 297 299 301 305 305 305 304 305 305 306 309 309 307 309 312 312 312 312 312 311 310 307 307 309 311 311 310 309 306 308 308 311 311 315
298 299 300 300 300 300 299 298 299 301 301 300 299 300 299 303 305 304 305 304 304 304 306 306 306 307 307 309 311 313 313 313 310 310 312 311 311 313 312 310 306 306 306 307 310 311 310
296 297 299 299 299 299 299 299 299 300 300 299 298 298 299 302 305 305 304 305 304 305 306 308 310 308 309 309 310 310 310 310 311 310 309 309 308 313 313 309 309 310 308 308 309 308 310
298 297 297 298 298 298 298 297 297 297 298 298 298 300 298 301 302 303 304 305 306 305 306 306 309 309 311 311 310 311 309 307 308 308 310 309 308 309 312 310 309 310 310 308 309 310 311
297 297 298 296 297 297 297 297 297 296 296 298 298 300 300 302 301 304 304 303 304 306 307 307 307 308 309 310 310 310 309 306 305 307 307 307 309 308 309 309 311 311 312 311 311 309 311
296 297 297 297 297 297 297 297 297 296 295 298 297 298 300 301 299 300 303 305 304 304 305 307 308 308 308 309 308 308 308 305 307 305 304 304 307 304 306 306 306 309 309 308 309 309 307
295 296 296 297 297 298 298 297 297 296 295 296 297 298 299 299 302 301 300 302 304 305 306 305 305 307 308 308 308 308 308 307 307 306 304 305 306 307 310 304 301 302 305 306 306 305 304
295 295 296 296 296 297 297 296 296 296 296 296 297 296 298 299 300 302 301 300 302 303 304 305 305 306 306 304 305 305 306 305 306 308 305 305 307 307 309 302 305 303 302 303 304 302 303
294 295 295 296 296 296 296 296 296 296 295 296 296 297 298 298 298 300 301 304 301 301 303 303 305 305 306 306 307 307 305 305 306 310 310 306 306 307 305 304 302 302 300 297 298 300 298
294 294 295 295 295 295 295 295 295 295 295 296 295 297 298 297 298 300 303 304 304 304 303 304 303 305 305 303 306 308 308 308 305 305 308 304 304 303 300 302 297 295 300 299 296 298 296
294 294 295 295 295 295 295 295 295 295 295 296 295 295 296 298 298 300 300 301 303 303 304 305 307 307 304 304 306 306 305 304 306 305 305 305 302 305 301 300 300 299 298 298 298 296 294
293 294 294 294 294 294 294 294 295 295 295 295 296 296 296 297 298 300 301 302 303 302 305 304 305 303 302 305 305 303 301 302 302 301 303 304 304 301 298 298 301 297 298 300 293 291 293
293 293 293 293 293 294 294 294 294 294 295 295 296 296 297 297 298 299 300 301 302 303 303 302 303 301 302 303 302 302 302 296 302 303 302 300 298 298 300 299 293 294 290 293 293 291 292

GFSGBSN_925_thetae_126.txt.gz
Theta_e
314 314 314 313 312 311 311 311 312 311 310 309 308 308 307 307 306 306 305 304 304 306 309 313 312 311 309 309 308 312 312 313 316 315 310 310 311 311 312 312 311 311 311 310 309 309 309
312 312 312 311 310 310 309 309 309 308 307 307 306 305 304 304 303 303 303 303 305 307 309 313 311 310 309 306 308 310 314 315 314 310 310 309 310 311 312 312 312 310 310 309 309 311 311
311 310 310 309 309 309 308 307 307 306 306 306 305 304 303 302 301 302 302 302 306 309 311 311 310 309 307 307 307 309 310 310 309 311 313 312 311 310 311 311 311 311 312 310 311 312 312
310 309 309 309 309 308 307 306 306 307 306 306 306 304 301 300 300 301 301 302 308 310 310 309 309 309 307 307 307 308 309 310 311 310 312 313 314 310 311 310 309 312 310 313 312 311 311
310 309 308 307 308 307 307 306 305 306 307 307 307 303 300 300 302 302 303 307 308 310 310 309 308 307 307 306 306 310 311 312 313 312 312 314 312 310 310 310 311 309 315 312 311 311 310
309 308 308 306 306 306 305 304 305 305 305 307 306 301 300 301 302 304 306 308 308 308 309 307 306 305 304 306 311 312 314 314 315 315 315 314 307 308 307 310 313 313 312 310 310 310 310
305 306 307 305 305 305 304 305 305 305 306 306 303 300 300 301 303 305 307 308 303 303 306 304 305 306 306 307 308 310 314 315 312 312 314 311 313 314 316 308 310 310 311 311 309 308 309
306 306 305 305 304 305 304 304 305 305 305 305 302 300 300 301 305 305 305 305 308 307 306 306 307 306 307 307 308 307 310 314 312 314 310 309 311 312 310 309 309 310 310 309 308 309 311
305 305 306 306 306 305 305 304 303 304 304 303 301 300 300 302 303 304 305 305 309 306 306 306 308 308 308 308 307 307 308 310 311 310 310 312 313 310 310 310 310 310 310 310 311 310 310
305 304 304 304 306 306 306 305 303 301 302 303 302 300 300 302 302 304 304 305 304 305 301 302 309 310 310 309 311 309 307 309 311 311 309 309 309 310 309 310 310 311 309 310 311 314 316
304 304 303 303 303 303 304 306 304 303 301 302 301 301 300 301 304 304 306 307 308 304 294 303 311 309 311 312 312 312 309 310 311 312 311 312 313 311 310 310 309 311 312 312 313 313 310
305 304 302 303 303 303 302 305 304 302 300 301 300 301 301 301 302 305 306 308 307 296 295 301 311 313 313 313 312 312 311 310 309 311 312 311 310 311 312 311 311 312 313 313 309 310 317
303 304 304 303 302 302 301 302 303 301 300 300 301 301 301 301 302 304 303 309 303 296 299 303 312 313 313 313 312 311 313 313 313 314 314 313 313 311 312 313 312 312 313 316 314 313 317
303 303 303 303 302 304 302 301 301 301 300 301 299 301 303 301 301 302 307 309 300 298 299 303 304 311 314 312 312 312 312 313 312 310 309 311 312 311 310 313 312 311 312 316 319 316 311
302 302 302 302 303 303 302 301 302 301 301 300 300 302 302 301 301 301 308 308 301 302 303 306 302 302 302 304 312 311 311 310 310 309 313 311 311 309 310 310 311 312 314 312 314 311 314
302 302 302 301 303 302 301 301 301 300 300 301 302 301 300 301 301 302 308 305 304 304 305 306 303 306 306 307 308 307 308 309 310 308 309 310 311 309 310 307 306 309 309 311 309 316 316
302 301 301 302 302 301 300 301 300 300 300 302 300 296 298 299 301 302 306 304 304 303 304 307 307 306 309 311 311 311 311 309 311 309 307 308 310 311 311 309 307 308 310 309 311 311 314
299 300 300 300 301 301 300 300 300 299 300 301 298 299 299 302 302 298 304 303 303 302 304 304 305 306 306 308 308 310 312 312 310 310 311 309 308 310 311 310 307 306 310 311 314 312 311
298 298 298 299 300 300 300 300 300 298 301 299 298 295 299 301 300 301 300 301 302 302 303 305 306 305 304 304 304 307 306 306 309 310 309 310 311 315 312 308 309 309 307 307 309 307 311
296 297 296 297 299 300 300 300 299 299 301 299 297 298 297 300 300 302 302 301 303 303 303 302 305 307 308 309 308 309 310 308 307 310 311 310 308 311 312 309 308 310 309 307 308 306 309
295 296 296 296 297 299 299 300 299 299 300 299 297 299 296 301 301 302 304 302 302 303 303 304 304 304 305 308 309 309 309 308 305 306 310 308 310 308 307 308 309 308 310 310 309 308 310
295 295 297 296 296 297 298 299 298 299 300 298 298 298 299 298 298 300 303 302 303 302 303 305 306 306 305 306 305 305 305 305 305 305 304 304 309 305 307 306 307 309 308 309 309 309 308
295 295 296 297 296 296 297 297 298 298 298 296 296 297 297 298 298 299 298 300 302 302 303 302 302 304 305 306 305 305 305 306 307 306 304 305 306 309 313 306 305 308 307 308 308 305 304
294 295 295 296 297 296 297 297 297 297 296 295 296 296 297 296 298 299 300 299 299 299 301 303 303 304 304 304 304 305 306 305 304 306 304 307 307 308 311 304 307 304 301 303 305 302 302
294 294 295 295 296 297 297 297 296 296 297 295 296 296 296 295 296 297 299 300 301 301 301 301 301 302 303 305 306 307 308 308 308 307 307 306 307 309 308 306 303 301 301 299 300 300 299
294 294 294 295 296 296 296 297 296 296 296 295 295 296 296 294 295 296 297 297 299 301 302 301 300 300 303 304 306 308 308 307 305 307 308 308 306 308 303 305 299 295 300 298 296 297 296
293 294 294 295 295 295 295 295 295 295 295 296 295 295 296 296 296 297 296 297 300 302 303 302 303 303 302 305 307 307 309 306 308 306 311 307 306 307 304 302 301 298 299 297 298 296 294
293 294 294 294 295 295 294 294 295 295 295 295 295 295 295 295 295 295 298 299 299 299 301 303 304 305 303 305 307 304 304 303 305 302 305 306 307 306 302 303 304 297 298 300 293 291 292
292 294 293 294 294 294 294 294 294 294 294 295 295 295 295 294 292 296 294 295 296 298 302 302 302 302 304 303 301 303 303 295 300 303 301 302 303 302 304 302 294 294 292 292 292 291 291

GFSGBSN_925_thetae_132.txt.gz
Theta_e
323 322 321 322 320 319 318 317 315 315 314 314 314 313 311 309 308 306 304 303 303 302 302 303 302 305 308 309 308 311 311 310 312 313 314 314 317 318 318 317 317 317 317 316 316 317 317
317 317 317 316 315 314 313 312 311 310 309 309 309 308 307 306 304 302 302 302 301 301 304 305 306 306 309 308 308 310 309 313 314 314 314 315 316 316 316 316 317 317 317 317 317 318 318
312 313 314 313 312 311 310 309 309 308 307 307 306 305 304 302 301 300 300 300 301 303 307 307 307 308 309 307 308 309 308 311 313 315 314 314 315 314 316 316 316 316 318 318 318 317 317
312 311 311 311 310 309 309 308 308 307 306 305 305 305 303 301 300 300 301 302 302 304 307 308 308 308 308 306 307 308 309 310 309 309 314 315 315 315 316 316 317 317 317 317 317 316 315
310 311 311 310 309 309 309 308 306 306 307 306 306 306 304 301 299 300 302 303 305 306 307 309 308 308 307 305 308 312 312 315 314 313 312 314 315 316 316 318 318 319 315 318 317 315 315
309 309 310 309 309 309 308 307 306 305 304 307 306 306 304 300 299 300 302 303 306 306 308 308 307 309 307 307 311 311 314 316 316 313 315 316 316 317 317 318 315 316 317 317 316 315 314
309 309 309 309 309 308 307 306 306 304 305 305 305 305 301 299 299 301 304 305 306 308 308 308 306 307 307 308 308 313 315 316 316 316 315 317 316 316 315 316 317 316 316 316 316 315 313
307 307 309 309 308 307 306 305 304 305 305 305 305 304 300 299 300 301 305 305 307 308 304 305 305 306 306 307 307 311 313 317 316 313 317 317 317 316 317 318 317 317 318 316 314 313 314
308 307 307 308 308 306 304 304 304 304 304 305 304 303 300 299 301 303 305 305 308 309 308 305 306 307 307 306 304 305 312 314 314 313 315 314 314 315 318 317 317 316 315 314 314 313 314
307 307 307 306 306 305 304 305 304 303 304 304 303 303 300 300 301 305 307 307 307 308 308 306 307 310 311 308 309 308 307 308 311 311 312 313 312 314 314 313 313 314 313 313 313 315 317
305 306 306 307 306 306 305 305 305 303 304 303 303 302 300 299 304 306 307 307 306 307 307 305 311 310 311 311 314 314 308 307 307 309 311 311 314 314 314 314 313 313 313 314 316 317 317
305 304 305 306 306 306 306 306 306 304 303 302 302 301 300 300 302 306 306 307 309 309 303 306 313 315 315 313 314 311 310 310 311 310 312 310 313 314 313 313 313 314 315 316 316 316 316
303 303 303 304 305 305 304 304 304 306 302 302 302 301 300 300 302 302 305 310 308 305 301 305 312 315 315 313 315 315 312 313 312 313 313 312 313 312 313 314 314 315 316 315 315 319 315
304 305 303 304 304 304 304 303 303 304 304 302 301 301 301 301 301 301 309 310 306 300 301 304 307 314 313 314 314 315 315 315 314 313 313 312 312 314 315 314 314 316 315 316 314 314 314
303 303 304 304 305 304 303 303 303 303 305 302 302 303 303 301 300 301 311 310 300 300 302 303 304 303 306 312 312 314 315 314 313 315 314 314 313 312 313 314 314 316 317 314 316 315 317
302 303 303 303 303 303 303 303 303 302 303 301 303 302 302 300 301 303 310 304 302 303 305 305 301 303 303 304 307 310 310 311 312 312 314 313 310 308 312 313 313 315 314 316 317 316 315
301 302 302 303 302 303 304 303 303 302 302 301 302 303 302 300 302 305 309 304 303 305 306 305 303 304 305 306 307 306 305 311 312 310 310 311 313 309 313 313 311 314 315 315 315 315 317
299 300 300 301 302 303 302 303 303 302 302 301 300 303 299 302 305 304 306 304 303 303 305 305 306 306 304 305 306 306 307 310 310 307 305 306 307 310 309 311 313 313 314 314 319 315 318
298 298 299 300 300 301 301 301 303 303 302 301 301 301 299 302 305 304 302 302 303 304 303 303 303 304 303 304 304 304 304 305 308 307 308 309 307 308 305 309 314 315 314 313 315 316 317
296 297 297 299 298 299 300 301 301 302 301 300 299 303 300 301 304 303 302 301 303 302 303 304 305 306 304 304 304 304 306 310 309 309 310 311 311 310 308 307 310 313 313 313 314 316 315
295 295 296 296 297 298 299 300 302 302 301 299 300 304 302 302 303 303 303 301 301 302 302 302 303 304 304 305 305 306 306 306 307 307 307 309 310 309 309 309 309 310 311 310 311 313 315
295 296 296 296 297 297 297 299 298 301 301 299 298 303 301 303 302 302 303 303 301 301 301 301 302 303 303 304 304 304 304 305 305 305 307 309 309 309 309 308 309 309 309 309 310 311 312
295 295 296 297 297 297 297 297 298 300 299 293 296 300 303 302 302 302 303 303 301 302 301 301 302 303 304 304 304 305 306 306 306 307 308 308 309 308 311 308 310 310 309 309 310 310 311
294 295 295 296 296 297 297 297 297 298 300 295 296 301 303 303 303 303 302 302 301 301 302 302 303 303 302 303 303 304 305 305 305 306 306 307 307 308 311 309 313 308 307 307 310 311 311
294 294 295 295 296 296 296 297 297 298 300 297 298 300 302 303 302 302 302 301 301 301 302 301 301 301 301 302 302 303 303 303 304 304 305 306 308 309 309 307 307 307 310 310 310 309 308
293 294 294 295 295 296 296 296 296 297 299 296 296 298 301 303 302 301 301 301 302 302 301 301 300 301 302 303 303 303 302 301 303 307 308 306 306 308 306 307 307 311 307 305 305 309 307
293 293 294 294 295 295 295 295 294 296 297 294 293 295 298 301 299 301 301 301 300 300 300 299 301 302 303 304 305 303 303 301 303 303 306 309 309 309 311 310 307 307 305 303 309 310 305
293 294 294 294 294 294 294 294 294 295 296 294 293 294 298 300 299 299 299 299 299 299 299 299 301 302 303 304 305 305 304 303 304 304 304 305 308 310 311 312 313 305 303 305 305 302 303
293 292 293 294 294 293 293 294 294 295 296 293 292 294 294 297 298 297 297 297 298 298 300 300 300 302 303 304 303 305 307 307 305 306 305 309 310 311 309 309 305 304 304 302 301 302 302

GFSGBSN_925_thetae_138.txt.gz
Theta_e
326 326 326 326 326 326 327 326 325 325 324 323 321 319 317 315 314 312 309 306 304 302 301 300 300 300 309 314 313 314 310 312 312 314 314 315 315 316 319 319 319 319 318 318 319 318 318
327 327 326 327 326 327 326 325 324 319 319 317 314 313 311 311 310 307 306 303 302 300 299 299 300 300 312 311 311 312 312 311 313 314 315 316 316 318 318 317 318 318 318 320 319 319 319
319 324 326 327 326 322 319 316 313 313 312 311 309 308 307 305 304 304 303 301 300 299 299 300 300 307 311 311 311 310 311 311 312 315 317 316 316 316 316 318 319 318 318 318 318 317 318
314 315 315 314 313 313 312 311 310 309 309 308 307 306 305 304 302 301 300 299 299 299 299 300 301 311 311 311 310 308 309 310 311 312 312 313 317 317 317 318 319 319 318 319 319 319 319
312 314 313 312 310 310 309 308 308 307 307 306 306 306 306 305 303 300 299 299 298 299 300 302 311 315 312 309 309 314 315 316 314 312 311 314 316 318 319 318 318 320 320 321 320 320 320
312 312 312 311 310 309 309 309 308 307 306 306 307 306 306 305 302 300 299 299 303 303 307 311 310 310 311 310 313 315 317 317 318 317 316 316 317 318 318 319 320 319 320 321 321 321 320
311 311 312 312 311 310 309 309 308 307 306 305 306 307 306 304 301 299 299 308 312 315 310 312 314 312 312 311 311 311 315 317 318 316 316 318 318 318 318 319 318 319 319 320 319 318 318
311 310 310 311 311 310 309 308 307 306 306 305 304 305 305 302 299 299 300 308 309 310 308 309 311 310 310 309 309 311 315 317 318 317 317 317 319 319 318 317 318 320 320 318 317 318 319
310 310 310 309 309 309 309 309 308 307 305 304 305 305 305 303 299 298 305 308 309 308 310 308 308 308 308 308 308 310 311 316 316 316 317 317 317 318 317 318 318 320 318 318 317 317 317
310 310 309 309 309 309 310 308 307 305 304 305 305 305 304 301 299 306 308 308 309 310 312 310 308 309 309 309 309 309 309 311 314 314 315 316 316 315 317 316 316 317 315 315 316 316 317
308 309 309 308 308 308 309 309 307 305 304 304 305 305 303 300 305 306 311 309 309 312 315 312 309 309 312 309 314 310 309 309 311 314 314 315 314 315 315 315 316 315 315 316 316 316 315
306 305 307 307 308 307 307 308 307 305 304 304 305 304 302 301 302 309 309 310 312 318 316 312 314 312 315 313 313 317 313 310 309 309 311 313 312 314 314 315 314 315 314 314 315 316 319
304 305 306 306 306 307 307 306 305 305 304 304 304 303 302 304 306 307 309 312 313 315 310 311 314 313 314 315 314 315 313 311 311 309 310 310 311 314 314 314 314 314 314 314 315 318 321
302 302 304 305 306 306 306 307 306 305 305 304 304 303 302 303 304 307 309 312 312 308 309 308 309 313 315 315 315 316 315 315 313 314 314 314 315 313 313 312 313 315 316 319 318 320 316
300 301 302 302 304 305 305 306 307 306 306 305 304 303 304 303 305 307 310 313 305 306 307 306 308 308 313 313 314 316 317 315 315 314 315 313 314 314 314 314 313 312 314 313 317 316 317
299 301 300 300 301 303 304 304 306 306 306 305 304 303 304 305 304 306 311 310 305 305 305 306 305 309 311 311 313 314 316 314 314 315 315 314 314 314 314 314 313 313 313 315 318 319 319
298 299 301 299 299 301 303 304 304 305 306 306 303 304 304 306 304 307 310 307 304 305 305 305 306 306 306 306 308 308 308 311 312 313 312 312 314 314 314 314 313 312 314 313 314 315 317
297 298 299 299 299 301 302 304 303 305 305 304 304 305 305 303 305 307 307 305 304 305 305 305 305 305 305 306 306 307 308 313 312 311 311 310 311 313 312 312 311 311 312 314 319 318 319
297 296 297 300 299 298 301 302 304 304 304 304 303 302 306 304 307 306 302 303 304 304 305 304 305 305 304 305 306 307 307 309 308 310 311 312 311 309 307 307 307 308 309 310 312 315 316
296 296 297 298 299 298 300 303 304 305 304 304 300 302 302 305 306 306 305 303 304 305 305 305 305 304 304 303 304 304 304 307 309 308 308 309 310 308 310 308 307 307 307 309 312 317 317
296 296 295 297 298 298 300 303 303 304 304 302 299 304 304 304 306 307 306 305 305 304 305 304 304 304 304 304 304 304 303 304 307 310 308 308 308 305 305 305 305 306 307 308 309 311 315
295 295 295 296 296 297 297 300 300 303 302 302 298 304 306 306 305 306 306 306 304 304 304 304 304 303 304 304 304 304 304 305 306 307 310 310 310 308 307 307 306 306 305 306 306 307 308
295 295 294 295 296 297 297 297 300 299 302 294 295 302 306 306 307 307 308 305 305 305 305 304 305 304 304 304 306 307 307 307 307 308 308 310 310 309 309 307 308 310 309 308 307 307 308
294 295 295 293 294 296 296 298 298 299 299 294 295 302 304 307 308 308 305 305 305 304 305 305 304 304 305 305 305 306 306 306 306 306 307 306 308 309 310 310 312 309 307 306 306 307 308
294 294 294 295 292 295 297 295 297 297 297 295 296 296 299 307 306 306 305 305 305 304 304 305 304 305 305 305 305 305 305 304 304 304 304 306 307 309 309 309 307 307 307 309 309 309 308
293 293 293 294 295 294 295 296 295 296 296 296 297 296 299 301 305 305 307 305 306 305 305 305 304 304 304 305 305 303 302 302 304 303 304 305 307 307 308 308 309 308 306 306 307 310 308
293 293 293 294 294 294 294 296 296 296 296 297 297 297 299 302 301 303 306 305 305 305 307 305 304 304 303 305 304 303 302 301 303 303 304 306 307 308 308 309 308 307 307 307 309 310 309
293 293 293 293 294 295 295 296 296 296 296 297 296 298 298 300 302 302 303 304 302 306 306 305 304 304 304 304 303 303 304 303 304 305 306 305 306 310 310 311 311 308 309 309 310 309 308
292 293 293 293 294 294 295 295 295 295 296 297 296 297 297 297 300 301 301 300 304 304 304 305 304 304 306 305 304 303 305 305 305 307 305 308 307 308 307 308 311 310 309 307 309 308 307

GFSGBSN_925_thetae_141.txt.gz
Theta_e
325 324 324 324 324 324 325 325 325 325 326 325 324 323 321 319 317 314 311 309 307 304 302 301 300 300 306 314 313 313 312 311 310 314 314 313 312 312 314 315 315 318 317 316 316 317 316
324 326 326 325 325 325 325 326 326 326 325 323 321 319 317 314 313 311 309 306 304 302 300 300 300 300 311 309 311 312 312 311 311 312 314 314 314 315 315 315 313 315 315 315 316 316 316
320 323 324 326 326 326 326 326 325 325 319 317 314 312 310 308 307 306 306 304 302 300 299 299 300 304 310 309 310 311 310 311 310 312 313 314 316 315 315 315 317 318 317 315 315 315 314
315 316 317 317 316 314 312 312 311 312 311 309 309 307 306 305 304 303 303 302 300 299 299 299 300 308 312 309 311 310 309 309 310 310 312 311 314 316 316 315 316 317 317 315 315 315 315
313 314 313 313 312 312 311 310 309 308 307 307 306 306 306 305 304 302 300 300 299 299 299 301 307 313 314 310 310 310 312 313 312 311 311 311 315 315 316 315 315 315 315 316 317 316 316
312 312 312 311 311 311 311 310 310 308 307 306 306 307 306 305 304 301 299 299 301 305 305 309 311 308 308 309 311 314 316 316 315 312 312 315 313 314 314 314 318 317 316 316 317 317 316
312 312 312 312 311 311 311 310 309 309 308 307 306 305 305 304 302 300 299 302 309 311 309 312 312 309 312 311 310 311 312 317 317 316 315 314 314 314 315 314 316 317 316 316 316 316 318
312 311 311 312 312 311 311 310 309 308 307 306 306 305 304 303 302 299 298 308 309 309 309 309 310 311 311 311 308 310 311 316 317 317 314 314 316 317 317 317 317 317 318 317 316 315 315
311 311 311 311 311 311 311 310 308 307 307 306 305 304 304 304 302 299 299 307 308 308 309 308 307 307 309 309 308 307 309 315 316 317 316 316 316 317 318 317 317 316 318 318 317 315 313
310 309 308 309 310 310 310 310 309 308 306 305 305 305 305 304 300 304 307 309 309 310 311 310 308 308 307 307 308 308 309 311 314 314 314 314 315 316 316 316 315 315 316 316 315 315 314
305 308 310 310 310 310 310 310 309 308 306 304 305 305 305 303 301 307 310 309 309 312 313 313 309 308 308 307 310 308 307 308 309 312 313 314 314 313 313 314 315 315 315 315 315 314 312
306 306 305 309 309 308 308 310 310 308 306 304 305 304 304 301 301 304 308 307 311 317 315 313 313 311 309 309 309 314 309 309 309 308 308 309 311 311 313 314 314 314 314 313 313 312 314
304 304 305 306 306 307 308 307 308 308 306 304 304 305 303 302 305 308 306 311 313 315 310 314 314 312 314 314 311 314 314 311 307 307 307 308 307 309 312 313 313 313 312 312 312 315 316
301 302 303 304 306 305 306 307 307 307 306 305 304 305 303 302 304 306 308 312 310 307 308 310 310 312 312 314 313 312 313 311 309 309 312 308 311 308 310 312 313 312 311 313 318 316 316
301 301 300 302 302 305 306 306 306 307 305 305 304 305 303 302 304 306 309 310 306 307 307 306 307 309 312 314 314 314 315 313 313 312 314 315 313 312 312 312 311 311 313 313 316 316 316
297 298 300 301 300 302 303 305 305 306 306 306 305 304 303 302 304 306 309 305 305 305 306 306 306 307 308 309 312 314 316 313 315 314 314 315 315 314 313 312 311 311 312 313 313 318 319
298 298 297 299 301 299 300 302 304 305 307 306 304 302 302 304 304 305 306 304 304 304 304 306 306 307 306 307 308 309 311 312 312 313 312 311 312 313 315 315 315 314 313 313 313 314 316
297 298 297 297 299 300 299 300 302 304 304 306 303 301 303 305 303 303 303 303 304 304 304 305 305 306 306 306 307 307 309 313 310 310 312 311 310 310 311 309 312 313 310 312 315 316 315
297 297 297 297 297 299 299 299 301 303 304 305 301 302 304 304 304 302 301 302 303 304 304 304 305 305 306 305 305 306 308 307 308 310 311 310 310 308 309 308 307 307 307 308 310 313 314
296 296 297 297 297 296 298 299 298 302 304 305 297 303 301 304 303 303 303 302 301 302 303 304 305 305 305 306 304 305 305 308 308 309 307 308 310 309 308 308 306 306 305 305 306 309 310
295 296 296 296 296 297 298 299 299 299 303 304 298 301 303 305 304 304 305 305 304 302 303 304 305 305 305 304 304 305 304 304 308 310 309 307 307 306 306 305 304 305 305 306 306 307 309
295 295 296 295 296 296 297 298 299 299 302 305 299 300 303 303 305 304 306 306 306 305 304 304 305 305 304 304 305 305 304 303 304 306 308 308 306 308 308 306 306 306 306 305 305 305 305
294 295 295 295 295 296 297 297 297 298 302 302 292 297 304 305 304 305 305 305 305 305 305 304 304 303 303 304 305 305 306 306 307 307 308 310 310 309 309 308 309 308 307 307 307 307 307
294 294 295 295 295 295 296 297 296 298 299 295 293 300 299 306 305 305 304 305 305 304 304 305 305 306 305 304 303 304 305 305 305 306 307 307 307 309 310 307 307 305 307 307 307 306 305
294 294 294 294 295 295 293 295 296 296 298 294 295 296 298 304 305 305 305 305 304 304 305 305 305 305 303 304 305 304 303 304 305 304 304 305 305 304 306 305 305 305 305 304 304 304 305
293 294 294 294 294 295 293 294 296 294 295 295 292 294 294 301 304 305 306 305 304 304 305 305 304 303 303 301 301 303 303 302 301 302 302 302 302 303 302 304 300 303 305 305 306 305 307
293 293 294 293 294 294 294 293 296 293 295 294 294 294 297 299 299 304 305 305 304 304 302 305 302 303 302 297 298 300 302 301 300 300 301 302 302 303 304 305 304 304 305 305 307 304 307
292 293 293 293 293 294 294 293 294 295 294 295 296 294 297 299 300 301 302 303 302 302 301 303 302 300 297 298 298 299 299 301 301 301 302 303 304 303 305 308 308 307 307 308 305 307 307
291 293 293 293 293 294 294 293 293 293 295 295 296 296 297 297 299 298 300 301 302 302 302 302 302 302 299 297 296 296 299 298 302 304 303 302 303 302 305 303 304 306 305 304 306 306 306